2016 Cux-Wetter.de -Die Nutzung der Wetterdaten nur mit ausdrcklicher Genehmigung
Wetterdaten: Donnerstag, 29.03.2018
Datum Zeit Temp. A. Feuchte A. Luftdruck Regen Wind Richtung Richtung Sonnenschein Solar Taupunkt Windchill Windben
29.03.2018 00:00 1,0 C 96 % 996,0 hPa 0,0 l/m 5,8 km/h (2 Bft) O-NO 74 0 min 0 W/m 0,4 C 1,0 C 14,5 km/h (3 Bft)
29.03.2018 00:03 1,0 C 96 % 995,9 hPa 0,0 l/m 4,2 km/h (1 Bft) N-NO 14 0 min 0 W/m 0,4 C 1,0 C 12,9 km/h (3 Bft)
29.03.2018 00:06 1,0 C 96 % 995,9 hPa 0,0 l/m 6,1 km/h (2 Bft) NO 37 0 min 0 W/m 0,4 C 1,0 C 12,9 km/h (3 Bft)
29.03.2018 00:09 1,0 C 96 % 995,9 hPa 0,0 l/m 6,4 km/h (2 Bft) O-NO 59 0 min 0 W/m 0,4 C 1,0 C 12,9 km/h (3 Bft)
29.03.2018 00:12 0,9 C 96 % 996,0 hPa 0,0 l/m 4,3 km/h (1 Bft) NO 41 0 min 0 W/m 0,3 C 0,9 C 8,0 km/h (2 Bft)
29.03.2018 00:15 0,9 C 96 % 996,0 hPa 0,0 l/m 3,8 km/h (1 Bft) N-NO 33 0 min 0 W/m 0,3 C 0,9 C 8,0 km/h (2 Bft)
29.03.2018 00:18 0,9 C 96 % 995,9 hPa 0,0 l/m 3,7 km/h (1 Bft) O-NO 62 0 min 0 W/m 0,3 C 0,9 C 8,0 km/h (2 Bft)
29.03.2018 00:21 0,9 C 96 % 996,0 hPa 0,0 l/m 5,9 km/h (2 Bft) N-NO 31 0 min 0 W/m 0,3 C 0,9 C 14,5 km/h (3 Bft)
29.03.2018 00:24 0,9 C 96 % 996,1 hPa 0,0 l/m 4,4 km/h (1 Bft) O-NO 63 0 min 0 W/m 0,3 C 0,9 C 11,3 km/h (2 Bft)
29.03.2018 00:27 0,9 C 96 % 996,0 hPa 0,0 l/m 4,7 km/h (1 Bft) O 84 0 min 0 W/m 0,3 C 0,9 C 17,7 km/h (3 Bft)
29.03.2018 00:30 0,9 C 96 % 996,0 hPa 0,2 l/m 4,0 km/h (1 Bft) N-NO 17 0 min 0 W/m 0,3 C 0,9 C 9,7 km/h (2 Bft)
29.03.2018 00:33 0,9 C 96 % 996,0 hPa 0,0 l/m 4,7 km/h (1 Bft) O-NO 60 0 min 0 W/m 0,3 C 0,9 C 11,3 km/h (2 Bft)
29.03.2018 00:36 0,9 C 96 % 996,0 hPa 0,0 l/m 4,7 km/h (1 Bft) O-NO 59 0 min 0 W/m 0,3 C 0,9 C 9,7 km/h (2 Bft)
29.03.2018 00:39 0,8 C 96 % 996,0 hPa 0,0 l/m 3,6 km/h (1 Bft) NO 44 0 min 0 W/m 0,2 C 0,8 C 8,0 km/h (2 Bft)
29.03.2018 00:42 0,8 C 96 % 996,0 hPa 0,0 l/m 3,8 km/h (1 Bft) NO 41 0 min 0 W/m 0,2 C 0,8 C 8,0 km/h (2 Bft)
29.03.2018 00:45 0,8 C 96 % 996,0 hPa 0,0 l/m 3,3 km/h (1 Bft) NO 49 0 min 0 W/m 0,2 C 0,8 C 14,5 km/h (3 Bft)
29.03.2018 00:48 0,8 C 96 % 996,0 hPa 0,0 l/m 4,2 km/h (1 Bft) NO 42 0 min 0 W/m 0,2 C 0,8 C 9,7 km/h (2 Bft)
29.03.2018 00:51 0,8 C 96 % 996,0 hPa 0,0 l/m 3,4 km/h (1 Bft) O 84 0 min 0 W/m 0,2 C 0,8 C 6,4 km/h (2 Bft)
29.03.2018 00:54 0,8 C 96 % 995,9 hPa 0,0 l/m 4,5 km/h (1 Bft) O 80 0 min 0 W/m 0,2 C 0,8 C 11,3 km/h (2 Bft)
29.03.2018 00:57 0,8 C 96 % 995,9 hPa 0,0 l/m 4,5 km/h (1 Bft) O-NO 59 0 min 0 W/m 0,2 C 0,8 C 8,0 km/h (2 Bft)
29.03.2018 01:00 0,8 C 96 % 995,9 hPa 0,0 l/m 3,4 km/h (1 Bft) NO 43 0 min 0 W/m 0,2 C 0,8 C 9,7 km/h (2 Bft)
29.03.2018 01:03 0,8 C 96 % 996,0 hPa 0,0 l/m 4,1 km/h (1 Bft) NO 51 0 min 0 W/m 0,2 C 0,8 C 8,0 km/h (2 Bft)
29.03.2018 01:06 0,8 C 96 % 996,0 hPa 0,0 l/m 3,7 km/h (1 Bft) NO 42 0 min 0 W/m 0,2 C 0,8 C 9,7 km/h (2 Bft)
29.03.2018 01:09 0,8 C 96 % 996,0 hPa 0,0 l/m 5,1 km/h (1 Bft) O-NO 75 0 min 0 W/m 0,2 C 0,8 C 9,7 km/h (2 Bft)
29.03.2018 01:12 0,8 C 96 % 996,0 hPa 0,2 l/m 4,0 km/h (1 Bft) O-NO 76 0 min 0 W/m 0,2 C 0,8 C 11,3 km/h (2 Bft)
29.03.2018 01:15 0,8 C 96 % 996,0 hPa 0,0 l/m 2,6 km/h (1 Bft) O-NO 76 0 min 0 W/m 0,2 C 0,8 C 4,8 km/h (1 Bft)
29.03.2018 01:18 0,8 C 96 % 996,0 hPa 0,0 l/m 3,5 km/h (1 Bft) NO 51 0 min 0 W/m 0,2 C 0,8 C 8,0 km/h (2 Bft)
29.03.2018 01:21 0,8 C 96 % 996,0 hPa 0,0 l/m 4,0 km/h (1 Bft) O 101 0 min 0 W/m 0,2 C 0,8 C 8,0 km/h (2 Bft)
29.03.2018 01:24 0,8 C 96 % 996,0 hPa 0,0 l/m 2,2 km/h (1 Bft) O 98 0 min 0 W/m 0,2 C 0,8 C 4,8 km/h (1 Bft)
29.03.2018 01:27 0,7 C 96 % 996,0 hPa 0,0 l/m 1,6 km/h (1 Bft) O 98 0 min 0 W/m 0,1 C 0,7 C 4,8 km/h (1 Bft)
29.03.2018 01:30 0,8 C 96 % 996,0 hPa 0,0 l/m 2,9 km/h (1 Bft) O-NO 67 0 min 0 W/m 0,2 C 0,8 C 8,0 km/h (2 Bft)
29.03.2018 01:33 0,7 C 96 % 996,0 hPa 0,0 l/m 2,7 km/h (1 Bft) O-NO 67 0 min 0 W/m 0,1 C 0,7 C 4,8 km/h (1 Bft)
29.03.2018 01:36 0,7 C 96 % 996,0 hPa 0,0 l/m 1,1 km/h (1 Bft) O-NO 67 0 min 0 W/m 0,1 C 0,7 C 3,2 km/h (1 Bft)
29.03.2018 01:39 0,7 C 96 % 996,1 hPa 0,0 l/m 2,6 km/h (1 Bft) O-NO 59 0 min 0 W/m 0,1 C 0,7 C 6,4 km/h (2 Bft)
29.03.2018 01:42 0,7 C 96 % 996,1 hPa 0,0 l/m 1,7 km/h (1 Bft) O-NO 57 0 min 0 W/m 0,1 C 0,7 C 3,2 km/h (1 Bft)
29.03.2018 01:45 0,7 C 96 % 996,1 hPa 0,0 l/m 2,5 km/h (1 Bft) O-NO 76 0 min 0 W/m 0,1 C 0,7 C 6,4 km/h (2 Bft)
29.03.2018 01:48 0,7 C 96 % 996,1 hPa 0,0 l/m 1,9 km/h (1 Bft) O-NO 76 0 min 0 W/m 0,1 C 0,7 C 4,8 km/h (1 Bft)
29.03.2018 01:51 0,7 C 96 % 996,2 hPa 0,0 l/m 2,8 km/h (1 Bft) O-NO 76 0 min 0 W/m 0,1 C 0,7 C 6,4 km/h (2 Bft)
29.03.2018 01:54 0,7 C 96 % 996,2 hPa 0,0 l/m 2,8 km/h (1 Bft) O-NO 75 0 min 0 W/m 0,1 C 0,7 C 4,8 km/h (1 Bft)
29.03.2018 01:57 0,7 C 96 % 996,2 hPa 0,0 l/m 0,8 km/h (0 Bft) O-NO 75 0 min 0 W/m 0,1 C 0,7 C 3,2 km/h (1 Bft)
29.03.2018 02:00 0,7 C 96 % 996,2 hPa 0,0 l/m 0,4 km/h (0 Bft) O-NO 75 0 min 0 W/m 0,1 C 0,7 C 1,6 km/h (1 Bft)
29.03.2018 02:03 0,7 C 96 % 996,2 hPa 0,0 l/m 0,0 km/h (0 Bft) O-NO 74 0 min 0 W/m 0,1 C 0,7 C 0,0 km/h (0 Bft)
29.03.2018 02:06 0,7 C 96 % 996,2 hPa 0,0 l/m 0,0 km/h (0 Bft) O-NO 74 0 min 0 W/m 0,1 C 0,7 C 0,0 km/h (0 Bft)
29.03.2018 02:09 0,7 C 96 % 996,2 hPa 0,0 l/m 0,0 km/h (0 Bft) O-NO 74 0 min 0 W/m 0,1 C 0,7 C 0,0 km/h (0 Bft)
29.03.2018 02:12 0,7 C 96 % 996,2 hPa 0,0 l/m 0,0 km/h (0 Bft) O-NO 74 0 min 0 W/m 0,1 C 0,7 C 0,0 km/h (0 Bft)
29.03.2018 02:15 0,7 C 96 % 996,2 hPa 0,0 l/m 0,0 km/h (0 Bft) O-NO 74 0 min 0 W/m 0,1 C 0,7 C 0,0 km/h (0 Bft)
29.03.2018 02:18 0,7 C 96 % 996,2 hPa 0,0 l/m 0,0 km/h (0 Bft) O-NO 74 0 min 0 W/m 0,1 C 0,7 C 0,0 km/h (0 Bft)
29.03.2018 02:21 0,7 C 96 % 996,2 hPa 0,0 l/m 0,0 km/h (0 Bft) O-NO 74 0 min 0 W/m 0,1 C 0,7 C 0,0 km/h (0 Bft)
29.03.2018 02:24 0,7 C 96 % 996,3 hPa 0,0 l/m 0,0 km/h (0 Bft) O-NO 74 0 min 0 W/m 0,1 C 0,7 C 0,0 km/h (0 Bft)
29.03.2018 02:27 0,7 C 96 % 996,3 hPa 0,0 l/m 0,0 km/h (0 Bft) O-NO 74 0 min 0 W/m 0,1 C 0,7 C 0,0 km/h (0 Bft)
29.03.2018 02:30 0,7 C 96 % 996,3 hPa 0,0 l/m 0,0 km/h (0 Bft) O-NO 74 0 min 0 W/m 0,1 C 0,7 C 0,0 km/h (0 Bft)
29.03.2018 02:33 0,7 C 96 % 996,3 hPa 0,0 l/m 0,0 km/h (0 Bft) O-NO 74 0 min 0 W/m 0,1 C 0,7 C 0,0 km/h (0 Bft)
29.03.2018 02:36 0,7 C 96 % 996,3 hPa 0,0 l/m 0,0 km/h (0 Bft) O-NO 74 0 min 0 W/m 0,1 C 0,7 C 0,0 km/h (0 Bft)
29.03.2018 02:39 0,7 C 96 % 996,3 hPa 0,0 l/m 0,0 km/h (0 Bft) O-NO 74 0 min 0 W/m 0,1 C 0,7 C 0,0 km/h (0 Bft)
29.03.2018 02:42 0,7 C 96 % 996,4 hPa 0,0 l/m 0,0 km/h (0 Bft) O-NO 74 0 min 0 W/m 0,1 C 0,7 C 0,0 km/h (0 Bft)
29.03.2018 02:45 0,7 C 96 % 996,4 hPa 0,0 l/m 0,0 km/h (0 Bft) O-NO 74 0 min 0 W/m 0,1 C 0,7 C 0,0 km/h (0 Bft)
29.03.2018 02:48 0,7 C 96 % 996,4 hPa 0,0 l/m 0,0 km/h (0 Bft) O-NO 74 0 min 0 W/m 0,1 C 0,7 C 0,0 km/h (0 Bft)
29.03.2018 02:51 0,7 C 96 % 996,4 hPa 0,0 l/m 0,0 km/h (0 Bft) O-NO 74 0 min 0 W/m 0,1 C 0,7 C 0,0 km/h (0 Bft)
29.03.2018 02:54 0,7 C 96 % 996,4 hPa 0,2 l/m 0,0 km/h (0 Bft) O-NO 74 0 min 0 W/m 0,1 C 0,7 C 0,0 km/h (0 Bft)
29.03.2018 02:57 0,7 C 96 % 996,4 hPa 0,0 l/m 0,0 km/h (0 Bft) O-NO 74 0 min 0 W/m 0,1 C 0,7 C 0,0 km/h (0 Bft)
29.03.2018 03:00 0,7 C 96 % 996,4 hPa 0,0 l/m 0,0 km/h (0 Bft) O-NO 74 0 min 0 W/m 0,1 C 0,7 C 0,0 km/h (0 Bft)
29.03.2018 03:03 0,7 C 96 % 996,5 hPa 0,0 l/m 0,0 km/h (0 Bft) O-NO 74 0 min 0 W/m 0,1 C 0,7 C 0,0 km/h (0 Bft)
29.03.2018 03:06 0,7 C 96 % 996,5 hPa 0,0 l/m 0,0 km/h (0 Bft) O-NO 74 0 min 0 W/m 0,1 C 0,7 C 0,0 km/h (0 Bft)
29.03.2018 03:09 0,7 C 96 % 996,5 hPa 0,0 l/m 0,0 km/h (0 Bft) O-NO 74 0 min 0 W/m 0,1 C 0,7 C 0,0 km/h (0 Bft)
29.03.2018 03:12 0,7 C 96 % 996,5 hPa 0,0 l/m 0,0 km/h (0 Bft) O-NO 74 0 min 0 W/m 0,1 C 0,7 C 0,0 km/h (0 Bft)
29.03.2018 03:15 0,7 C 96 % 996,5 hPa 0,0 l/m 0,0 km/h (0 Bft) O-NO 74 0 min 0 W/m 0,1 C 0,7 C 0,0 km/h (0 Bft)
29.03.2018 03:18 0,7 C 96 % 996,5 hPa 0,0 l/m 0,0 km/h (0 Bft) O-NO 74 0 min 0 W/m 0,1 C 0,7 C 0,0 km/h (0 Bft)
29.03.2018 03:21 0,7 C 96 % 996,5 hPa 0,0 l/m 0,0 km/h (0 Bft) O-NO 74 0 min 0 W/m 0,1 C 0,7 C 0,0 km/h (0 Bft)
29.03.2018 03:24 0,7 C 96 % 996,6 hPa 0,0 l/m 0,0 km/h (0 Bft) O-NO 74 0 min 0 W/m 0,1 C 0,7 C 0,0 km/h (0 Bft)
29.03.2018 03:27 0,7 C 96 % 996,5 hPa 0,0 l/m 0,0 km/h (0 Bft) O-NO 74 0 min 0 W/m 0,1 C 0,7 C 0,0 km/h (0 Bft)
29.03.2018 03:30 0,7 C 96 % 996,6 hPa 0,0 l/m 0,0 km/h (0 Bft) O-NO 74 0 min 0 W/m 0,1 C 0,7 C 0,0 km/h (0 Bft)
29.03.2018 03:33 0,7 C 96 % 996,6 hPa 0,0 l/m 0,0 km/h (0 Bft) O-NO 74 0 min 0 W/m 0,1 C 0,7 C 0,0 km/h (0 Bft)
29.03.2018 03:36 0,7 C 96 % 996,7 hPa 0,0 l/m 0,0 km/h (0 Bft) O-NO 74 0 min 0 W/m 0,1 C 0,7 C 0,0 km/h (0 Bft)
29.03.2018 03:39 0,7 C 96 % 996,7 hPa 0,0 l/m 0,0 km/h (0 Bft) O-NO 74 0 min 0 W/m 0,1 C 0,7 C 0,0 km/h (0 Bft)
29.03.2018 03:42 0,7 C 96 % 996,8 hPa 0,0 l/m 0,0 km/h (0 Bft) O-NO 74 0 min 0 W/m 0,1 C 0,7 C 0,0 km/h (0 Bft)
29.03.2018 03:45 0,7 C 96 % 996,8 hPa 0,0 l/m 0,0 km/h (0 Bft) O-NO 74 0 min 0 W/m 0,1 C 0,7 C 0,0 km/h (0 Bft)
29.03.2018 03:48 0,7 C 96 % 996,9 hPa 0,0 l/m 0,0 km/h (0 Bft) O-NO 74 0 min 0 W/m 0,1 C 0,7 C 0,0 km/h (0 Bft)
29.03.2018 03:51 0,7 C 96 % 996,9 hPa 0,0 l/m 0,0 km/h (0 Bft) O-NO 74 0 min 0 W/m 0,1 C 0,7 C 0,0 km/h (0 Bft)
29.03.2018 03:54 0,7 C 96 % 996,9 hPa 0,0 l/m 0,0 km/h (0 Bft) O-NO 74 0 min 0 W/m 0,1 C 0,7 C 0,0 km/h (0 Bft)
29.03.2018 03:57 0,7 C 96 % 996,9 hPa 0,0 l/m 0,0 km/h (0 Bft) O-NO 74 0 min 0 W/m 0,1 C 0,7 C 0,0 km/h (0 Bft)
29.03.2018 04:00 0,7 C 96 % 997,0 hPa 0,0 l/m 0,0 km/h (0 Bft) O-NO 74 0 min 0 W/m 0,1 C 0,7 C 0,0 km/h (0 Bft)
29.03.2018 04:03 0,7 C 96 % 997,0 hPa 0,0 l/m 0,0 km/h (0 Bft) O-NO 74 0 min 0 W/m 0,1 C 0,7 C 0,0 km/h (0 Bft)
29.03.2018 04:06 0,7 C 96 % 997,0 hPa 0,0 l/m 0,0 km/h (0 Bft) O-NO 74 0 min 0 W/m 0,1 C 0,7 C 0,0 km/h (0 Bft)
29.03.2018 04:09 0,7 C 96 % 997,0 hPa 0,0 l/m 0,0 km/h (0 Bft) O-NO 74 0 min 0 W/m 0,1 C 0,7 C 0,0 km/h (0 Bft)
29.03.2018 04:12 0,7 C 96 % 997,1 hPa 0,0 l/m 0,0 km/h (0 Bft) O-NO 74 0 min 0 W/m 0,1 C 0,7 C 0,0 km/h (0 Bft)
29.03.2018 04:15 0,7 C 96 % 997,1 hPa 0,0 l/m 0,0 km/h (0 Bft) O-NO 74 0 min 0 W/m 0,1 C 0,7 C 0,0 km/h (0 Bft)
29.03.2018 04:18 0,7 C 96 % 997,2 hPa 0,0 l/m 0,0 km/h (0 Bft) O-NO 74 0 min 0 W/m 0,1 C 0,7 C 0,0 km/h (0 Bft)
29.03.2018 04:21 0,7 C 96 % 997,2 hPa 0,0 l/m 0,0 km/h (0 Bft) O-NO 74 0 min 0 W/m 0,1 C 0,7 C 0,0 km/h (0 Bft)
29.03.2018 04:24 0,7 C 96 % 997,2 hPa 0,0 l/m 0,0 km/h (0 Bft) O-NO 74 0 min 0 W/m 0,1 C 0,7 C 0,0 km/h (0 Bft)
29.03.2018 04:27 0,7 C 96 % 997,3 hPa 0,0 l/m 0,0 km/h (0 Bft) O-NO 74 0 min 0 W/m 0,1 C 0,7 C 0,0 km/h (0 Bft)
29.03.2018 04:30 0,7 C 96 % 997,3 hPa 0,2 l/m 0,0 km/h (0 Bft) O-NO 71 0 min 0 W/m 0,1 C 0,7 C 0,0 km/h (0 Bft)
29.03.2018 04:33 0,7 C 96 % 997,3 hPa 0,0 l/m 0,0 km/h (0 Bft) O-NO 71 0 min 0 W/m 0,1 C 0,7 C 0,0 km/h (0 Bft)
29.03.2018 04:36 0,7 C 96 % 997,3 hPa 0,0 l/m 0,0 km/h (0 Bft) O-NO 71 0 min 0 W/m 0,1 C 0,7 C 0,0 km/h (0 Bft)
29.03.2018 04:39 0,7 C 96 % 997,3 hPa 0,0 l/m 0,0 km/h (0 Bft) O-NO 71 0 min 0 W/m 0,1 C 0,7 C 0,0 km/h (0 Bft)
29.03.2018 04:42 0,7 C 96 % 997,3 hPa 0,0 l/m 0,0 km/h (0 Bft) O-NO 71 0 min 0 W/m 0,1 C 0,7 C 0,0 km/h (0 Bft)
29.03.2018 04:45 0,7 C 96 % 997,3 hPa 0,0 l/m 0,0 km/h (0 Bft) O-NO 71 0 min 0 W/m 0,1 C 0,7 C 0,0 km/h (0 Bft)
29.03.2018 04:48 0,7 C 96 % 997,3 hPa 0,0 l/m 0,0 km/h (0 Bft) O-NO 71 0 min 0 W/m 0,1 C 0,7 C 0,0 km/h (0 Bft)
29.03.2018 04:51 0,8 C 96 % 997,3 hPa 0,0 l/m 0,0 km/h (0 Bft) O-NO 71 0 min 0 W/m 0,2 C 0,8 C 0,0 km/h (0 Bft)
29.03.2018 04:54 0,8 C 96 % 997,4 hPa 0,0 l/m 0,0 km/h (0 Bft) O-NO 71 0 min 0 W/m 0,2 C 0,8 C 0,0 km/h (0 Bft)
29.03.2018 04:57 0,8 C 96 % 997,4 hPa 0,0 l/m 0,0 km/h (0 Bft) O-NO 71 0 min 0 W/m 0,2 C 0,8 C 0,0 km/h (0 Bft)
29.03.2018 05:00 0,7 C 96 % 997,4 hPa 0,0 l/m 0,0 km/h (0 Bft) O-NO 71 0 min 0 W/m 0,1 C 0,7 C 0,0 km/h (0 Bft)
29.03.2018 05:03 0,7 C 96 % 997,5 hPa 0,0 l/m 0,0 km/h (0 Bft) O-NO 71 0 min 0 W/m 0,1 C 0,7 C 0,0 km/h (0 Bft)
29.03.2018 05:06 0,7 C 96 % 997,5 hPa 0,0 l/m 0,0 km/h (0 Bft) O-NO 71 0 min 0 W/m 0,1 C 0,7 C 0,0 km/h (0 Bft)
29.03.2018 05:09 0,7 C 96 % 997,6 hPa 0,0 l/m 0,0 km/h (0 Bft) O-NO 71 0 min 0 W/m 0,1 C 0,7 C 0,0 km/h (0 Bft)
29.03.2018 05:12 0,8 C 96 % 997,5 hPa 0,0 l/m 0,0 km/h (0 Bft) O-NO 71 0 min 0 W/m 0,2 C 0,8 C 0,0 km/h (0 Bft)
29.03.2018 05:15 0,8 C 96 % 997,6 hPa 0,0 l/m 0,0 km/h (0 Bft) O-NO 71 0 min 0 W/m 0,2 C 0,8 C 0,0 km/h (0 Bft)
29.03.2018 05:18 0,7 C 96 % 997,6 hPa 0,0 l/m 0,0 km/h (0 Bft) O-NO 71 0 min 0 W/m 0,1 C 0,7 C 0,0 km/h (0 Bft)
29.03.2018 05:21 0,8 C 96 % 997,7 hPa 0,0 l/m 0,0 km/h (0 Bft) O-NO 71 0 min 0 W/m 0,2 C 0,8 C 0,0 km/h (0 Bft)
29.03.2018 05:24 0,8 C 96 % 997,7 hPa 0,0 l/m 0,0 km/h (0 Bft) O-NO 71 0 min 0 W/m 0,2 C 0,8 C 0,0 km/h (0 Bft)
29.03.2018 05:27 0,8 C 96 % 997,8 hPa 0,0 l/m 0,0 km/h (0 Bft) O-NO 71 0 min 0 W/m 0,2 C 0,8 C 0,0 km/h (0 Bft)
29.03.2018 05:30 0,8 C 96 % 997,8 hPa 0,0 l/m 0,0 km/h (0 Bft) O-NO 71 0 min 0 W/m 0,2 C 0,8 C 0,0 km/h (0 Bft)
29.03.2018 05:33 0,8 C 96 % 997,8 hPa 0,0 l/m 0,0 km/h (0 Bft) O-NO 71 0 min 0 W/m 0,2 C 0,8 C 0,0 km/h (0 Bft)
29.03.2018 05:36 0,8 C 96 % 997,8 hPa 0,0 l/m 0,0 km/h (0 Bft) O-NO 71 0 min 0 W/m 0,2 C 0,8 C 0,0 km/h (0 Bft)
29.03.2018 05:39 0,8 C 96 % 997,8 hPa 0,0 l/m 0,0 km/h (0 Bft) O-NO 71 0 min 0 W/m 0,2 C 0,8 C 0,0 km/h (0 Bft)
29.03.2018 05:42 0,8 C 96 % 997,9 hPa 0,0 l/m 0,0 km/h (0 Bft) O-NO 71 0 min 0 W/m 0,2 C 0,8 C 0,0 km/h (0 Bft)
29.03.2018 05:45 0,8 C 96 % 998,0 hPa 0,0 l/m 0,0 km/h (0 Bft) O-NO 71 0 min 0 W/m 0,2 C 0,8 C 0,0 km/h (0 Bft)
29.03.2018 05:48 0,8 C 96 % 998,0 hPa 0,0 l/m 0,0 km/h (0 Bft) O-NO 71 0 min 0 W/m 0,2 C 0,8 C 0,0 km/h (0 Bft)
29.03.2018 05:51 0,8 C 96 % 998,0 hPa 0,0 l/m 0,7 km/h (0 Bft) O-NO 71 0 min 0 W/m 0,2 C 0,8 C 4,8 km/h (1 Bft)
29.03.2018 05:54 0,8 C 96 % 998,1 hPa 0,0 l/m 1,9 km/h (1 Bft) O-NO 71 0 min 0 W/m 0,2 C 0,8 C 3,2 km/h (1 Bft)
29.03.2018 05:57 0,8 C 96 % 998,1 hPa 0,0 l/m 1,9 km/h (1 Bft) O-NO 71 0 min 0 W/m 0,2 C 0,8 C 3,2 km/h (1 Bft)
29.03.2018 06:00 0,8 C 96 % 998,1 hPa 0,0 l/m 1,4 km/h (1 Bft) O-NO 71 0 min 0 W/m 0,2 C 0,8 C 3,2 km/h (1 Bft)
29.03.2018 06:03 0,8 C 96 % 998,2 hPa 0,0 l/m 1,1 km/h (1 Bft) O-NO 71 0 min 0 W/m 0,2 C 0,8 C 3,2 km/h (1 Bft)
29.03.2018 06:06 0,8 C 96 % 998,2 hPa 0,0 l/m 1,0 km/h (0 Bft) O-NO 71 0 min 0 W/m 0,2 C 0,8 C 3,2 km/h (1 Bft)
29.03.2018 06:09 0,8 C 96 % 998,2 hPa 0,0 l/m 1,4 km/h (1 Bft) O-NO 71 0 min 0 W/m 0,2 C 0,8 C 3,2 km/h (1 Bft)
29.03.2018 06:12 0,8 C 96 % 998,2 hPa 0,0 l/m 2,3 km/h (1 Bft) O-NO 71 0 min 0 W/m 0,2 C 0,8 C 4,8 km/h (1 Bft)
29.03.2018 06:15 0,8 C 96 % 998,2 hPa 0,0 l/m 2,3 km/h (1 Bft) O-NO 71 0 min 0 W/m 0,2 C 0,8 C 4,8 km/h (1 Bft)
29.03.2018 06:18 0,8 C 96 % 998,3 hPa 0,0 l/m 1,8 km/h (1 Bft) O-NO 71 0 min 0 W/m 0,2 C 0,8 C 3,2 km/h (1 Bft)
29.03.2018 06:21 0,8 C 96 % 998,2 hPa 0,0 l/m 3,7 km/h (1 Bft) N 355 0 min 0 W/m 0,2 C 0,8 C 6,4 km/h (2 Bft)
29.03.2018 06:24 0,8 C 96 % 998,4 hPa 0,0 l/m 3,2 km/h (1 Bft) N 355 0 min 0 W/m 0,2 C 0,8 C 4,8 km/h (1 Bft)
29.03.2018 06:27 0,8 C 96 % 998,4 hPa 0,0 l/m 2,0 km/h (1 Bft) N 355 0 min 0 W/m 0,2 C 0,8 C 3,2 km/h (1 Bft)
29.03.2018 06:30 0,9 C 96 % 998,4 hPa 0,0 l/m 1,2 km/h (1 Bft) N 355 0 min 0 W/m 0,3 C 0,9 C 3,2 km/h (1 Bft)
29.03.2018 06:33 0,9 C 97 % 998,4 hPa 0,0 l/m 1,8 km/h (1 Bft) N 355 0 min 0 W/m 0,5 C 0,9 C 4,8 km/h (1 Bft)
29.03.2018 06:36 0,9 C 97 % 998,5 hPa 0,0 l/m 0,6 km/h (0 Bft) N 355 0 min 0 W/m 0,5 C 0,9 C 3,2 km/h (1 Bft)
29.03.2018 06:39 0,9 C 97 % 998,5 hPa 0,0 l/m 2,1 km/h (1 Bft) N 355 0 min 0 W/m 0,5 C 0,9 C 4,8 km/h (1 Bft)
29.03.2018 06:42 0,9 C 97 % 998,5 hPa 0,0 l/m 0,7 km/h (0 Bft) N 355 0 min 0 W/m 0,5 C 0,9 C 3,2 km/h (1 Bft)
29.03.2018 06:45 0,9 C 97 % 998,6 hPa 0,0 l/m 1,4 km/h (1 Bft) N 355 0 min 0 W/m 0,5 C 0,9 C 3,2 km/h (1 Bft)
29.03.2018 06:48 0,9 C 97 % 998,6 hPa 0,0 l/m 2,6 km/h (1 Bft) N 355 0 min 0 W/m 0,5 C 0,9 C 4,8 km/h (1 Bft)
29.03.2018 06:51 0,9 C 97 % 998,6 hPa 0,0 l/m 2,4 km/h (1 Bft) N 355 0 min 0 W/m 0,5 C 0,9 C 4,8 km/h (1 Bft)
29.03.2018 06:54 0,9 C 97 % 998,7 hPa 0,0 l/m 2,0 km/h (1 Bft) N 355 0 min 0 W/m 0,5 C 0,9 C 4,8 km/h (1 Bft)
29.03.2018 06:57 0,9 C 97 % 998,7 hPa 0,0 l/m 0,6 km/h (0 Bft) N 355 0 min 0 W/m 0,5 C 0,9 C 3,2 km/h (1 Bft)
29.03.2018 07:00 0,9 C 97 % 998,8 hPa 0,0 l/m 2,2 km/h (1 Bft) N 355 0 min 0 W/m 0,5 C 0,9 C 3,2 km/h (1 Bft)
29.03.2018 07:03 0,9 C 97 % 998,8 hPa 0,0 l/m 2,3 km/h (1 Bft) N 355 0 min 0 W/m 0,5 C 0,9 C 4,8 km/h (1 Bft)
29.03.2018 07:06 0,9 C 97 % 998,9 hPa 0,0 l/m 3,0 km/h (1 Bft) W-NW 284 0 min 0 W/m 0,5 C 0,9 C 6,4 km/h (2 Bft)
29.03.2018 07:09 1,0 C 97 % 998,9 hPa 0,0 l/m 3,2 km/h (1 Bft) W-NW 284 0 min 0 W/m 0,6 C 1,0 C 6,4 km/h (2 Bft)
29.03.2018 07:12 1,0 C 97 % 998,9 hPa 0,0 l/m 3,6 km/h (1 Bft) W 273 0 min 0 W/m 0,6 C 1,0 C 9,7 km/h (2 Bft)
29.03.2018 07:15 1,0 C 97 % 998,9 hPa 0,0 l/m 2,8 km/h (1 Bft) W 275 0 min 0 W/m 0,6 C 1,0 C 4,8 km/h (1 Bft)
29.03.2018 07:18 1,0 C 97 % 999,0 hPa 0,0 l/m 2,2 km/h (1 Bft) W 277 0 min 0 W/m 0,6 C 1,0 C 4,8 km/h (1 Bft)
29.03.2018 07:21 1,1 C 97 % 999,1 hPa 0,0 l/m 3,4 km/h (1 Bft) W-NW 284 0 min 0 W/m 0,7 C 1,1 C 9,7 km/h (2 Bft)
29.03.2018 07:24 1,1 C 97 % 999,1 hPa 0,0 l/m 3,5 km/h (1 Bft) W 277 0 min 0 W/m 0,7 C 1,1 C 4,8 km/h (1 Bft)
29.03.2018 07:27 1,1 C 97 % 999,1 hPa 0,0 l/m 3,4 km/h (1 Bft) W 277 0 min 0 W/m 0,7 C 1,1 C 9,7 km/h (2 Bft)
29.03.2018 07:30 1,1 C 97 % 999,1 hPa 0,0 l/m 6,0 km/h (2 Bft) W-NW 286 0 min 0 W/m 0,7 C 1,1 C 11,3 km/h (2 Bft)
29.03.2018 07:33 1,1 C 97 % 999,2 hPa 0,0 l/m 4,3 km/h (1 Bft) W-NW 282 0 min 0 W/m 0,7 C 1,1 C 6,4 km/h (2 Bft)
29.03.2018 07:36 1,1 C 97 % 999,2 hPa 0,0 l/m 3,6 km/h (1 Bft) W-NW 282 0 min 0 W/m 0,7 C 1,1 C 6,4 km/h (2 Bft)
29.03.2018 07:39 1,1 C 97 % 999,2 hPa 0,2 l/m 4,2 km/h (1 Bft) W 281 0 min 0 W/m 0,7 C 1,1 C 9,7 km/h (2 Bft)
29.03.2018 07:42 1,1 C 97 % 999,3 hPa 0,0 l/m 4,2 km/h (1 Bft) W-NW 297 0 min 0 W/m 0,7 C 1,1 C 9,7 km/h (2 Bft)
29.03.2018 07:45 1,2 C 97 % 999,3 hPa 0,0 l/m 3,5 km/h (1 Bft) W-NW 283 0 min 5 W/m 0,8 C 1,2 C 9,7 km/h (2 Bft)
29.03.2018 07:48 1,2 C 97 % 999,3 hPa 0,0 l/m 4,8 km/h (1 Bft) W 281 0 min 5 W/m 0,8 C 1,2 C 11,3 km/h (2 Bft)
29.03.2018 07:51 1,2 C 97 % 999,4 hPa 0,0 l/m 4,4 km/h (1 Bft) W 275 0 min 0 W/m 0,8 C 1,2 C 9,7 km/h (2 Bft)
29.03.2018 07:54 1,2 C 97 % 999,5 hPa 0,0 l/m 3,1 km/h (1 Bft) W 275 0 min 0 W/m 0,8 C 1,2 C 6,4 km/h (2 Bft)
29.03.2018 07:57 1,2 C 97 % 999,5 hPa 0,0 l/m 4,0 km/h (1 Bft) W-NW 294 0 min 5 W/m 0,8 C 1,2 C 9,7 km/h (2 Bft)
29.03.2018 08:00 1,2 C 97 % 999,5 hPa 0,0 l/m 4,1 km/h (1 Bft) W-NW 290 0 min 5 W/m 0,8 C 1,2 C 6,4 km/h (2 Bft)
29.03.2018 08:03 1,3 C 97 % 999,6 hPa 0,0 l/m 3,6 km/h (1 Bft) W 281 0 min 5 W/m 0,9 C 1,3 C 9,7 km/h (2 Bft)
29.03.2018 08:06 1,3 C 97 % 999,6 hPa 0,0 l/m 5,3 km/h (1 Bft) W 281 0 min 5 W/m 0,9 C 1,3 C 11,3 km/h (2 Bft)
29.03.2018 08:09 1,3 C 97 % 999,6 hPa 0,0 l/m 3,1 km/h (1 Bft) W 281 0 min 7 W/m 0,9 C 1,3 C 6,4 km/h (2 Bft)
29.03.2018 08:12 1,3 C 97 % 999,7 hPa 0,0 l/m 4,5 km/h (1 Bft) W-NW 288 0 min 5 W/m 0,9 C 1,3 C 11,3 km/h (2 Bft)
29.03.2018 08:15 1,3 C 97 % 999,7 hPa 0,0 l/m 4,5 km/h (1 Bft) W-NW 282 0 min 9 W/m 0,9 C 1,3 C 11,3 km/h (2 Bft)
29.03.2018 08:18 1,3 C 97 % 999,7 hPa 0,0 l/m 4,5 km/h (1 Bft) W 281 0 min 9 W/m 0,9 C 1,3 C 8,0 km/h (2 Bft)
29.03.2018 08:21 1,3 C 97 % 999,8 hPa 0,0 l/m 3,9 km/h (1 Bft) W-NW 284 0 min 11 W/m 0,9 C 1,3 C 9,7 km/h (2 Bft)
29.03.2018 08:24 1,4 C 97 % 999,8 hPa 0,2 l/m 4,1 km/h (1 Bft) NW 306 0 min 11 W/m 1,0 C 1,4 C 9,7 km/h (2 Bft)
29.03.2018 08:30 1,4 C 97 % 999,9 hPa 0,0 l/m 4,3 km/h (1 Bft) W 277 0 min 11 W/m 1,0 C 1,4 C 9,7 km/h (2 Bft)
29.03.2018 08:33 1,4 C 97 % 999,9 hPa 0,0 l/m 3,5 km/h (1 Bft) W-NW 298 0 min 11 W/m 1,0 C 1,4 C 6,4 km/h (2 Bft)
29.03.2018 08:36 1,4 C 97 % 999,9 hPa 0,0 l/m 3,8 km/h (1 Bft) W 273 0 min 14 W/m 1,0 C 1,4 C 11,3 km/h (2 Bft)
29.03.2018 08:39 1,5 C 97 % 999,9 hPa 0,0 l/m 3,8 km/h (1 Bft) W-NW 293 0 min 14 W/m 1,1 C 1,5 C 8,0 km/h (2 Bft)
29.03.2018 08:42 1,5 C 97 % 1000,0 hPa 0,0 l/m 5,8 km/h (2 Bft) W-NW 283 0 min 16 W/m 1,1 C 1,5 C 11,3 km/h (2 Bft)
29.03.2018 08:45 1,6 C 97 % 1000,0 hPa 0,0 l/m 5,5 km/h (2 Bft) W-NW 299 0 min 28 W/m 1,2 C 1,6 C 12,9 km/h (3 Bft)
29.03.2018 08:48 1,7 C 97 % 1000,1 hPa 0,0 l/m 4,2 km/h (1 Bft) W-NW 289 0 min 25 W/m 1,3 C 1,7 C 6,4 km/h (2 Bft)
29.03.2018 08:51 1,7 C 97 % 1000,2 hPa 0,0 l/m 4,5 km/h (1 Bft) W-NW 288 0 min 19 W/m 1,3 C 1,7 C 8,0 km/h (2 Bft)
29.03.2018 08:54 1,8 C 97 % 1000,2 hPa 0,0 l/m 3,1 km/h (1 Bft) W-NW 294 0 min 19 W/m 1,4 C 1,8 C 8,0 km/h (2 Bft)
29.03.2018 08:57 1,8 C 97 % 1000,3 hPa 0,0 l/m 4,4 km/h (1 Bft) W 263 0 min 21 W/m 1,4 C 1,8 C 6,4 km/h (2 Bft)
29.03.2018 09:00 1,8 C 97 % 1000,3 hPa 0,0 l/m 3,5 km/h (1 Bft) W 271 0 min 23 W/m 1,4 C 1,8 C 9,7 km/h (2 Bft)
29.03.2018 09:03 1,8 C 97 % 1000,3 hPa 0,2 l/m 3,4 km/h (1 Bft) W 277 0 min 23 W/m 1,4 C 1,8 C 6,4 km/h (2 Bft)
29.03.2018 09:06 1,8 C 97 % 1000,4 hPa 0,0 l/m 3,5 km/h (1 Bft) W 279 0 min 26 W/m 1,4 C 1,8 C 9,7 km/h (2 Bft)
29.03.2018 09:09 1,9 C 97 % 1000,4 hPa 0,0 l/m 3,6 km/h (1 Bft) W 279 0 min 23 W/m 1,5 C 1,9 C 6,4 km/h (2 Bft)
29.03.2018 09:12 1,9 C 97 % 1000,5 hPa 0,0 l/m 4,5 km/h (1 Bft) W 266 0 min 28 W/m 1,5 C 1,9 C 9,7 km/h (2 Bft)
29.03.2018 09:15 1,9 C 97 % 1000,4 hPa 0,0 l/m 4,1 km/h (1 Bft) W 272 0 min 23 W/m 1,5 C 1,9 C 9,7 km/h (2 Bft)
29.03.2018 09:18 1,9 C 97 % 1000,4 hPa 0,2 l/m 2,9 km/h (1 Bft) W 272 0 min 25 W/m 1,5 C 1,9 C 6,4 km/h (2 Bft)
29.03.2018 09:21 1,9 C 97 % 1000,4 hPa 0,0 l/m 3,5 km/h (1 Bft) W 272 0 min 35 W/m 1,5 C 1,9 C 6,4 km/h (2 Bft)
29.03.2018 09:24 1,9 C 97 % 1000,4 hPa 0,0 l/m 5,5 km/h (2 Bft) W 275 0 min 28 W/m 1,5 C 1,9 C 11,3 km/h (2 Bft)
29.03.2018 09:27 1,9 C 97 % 1000,4 hPa 0,0 l/m 4,0 km/h (1 Bft) NW 306 0 min 33 W/m 1,5 C 1,9 C 11,3 km/h (2 Bft)
29.03.2018 09:30 1,9 C 97 % 1000,5 hPa 0,0 l/m 5,1 km/h (1 Bft) NW 304 0 min 33 W/m 1,5 C 1,9 C 12,9 km/h (3 Bft)
29.03.2018 09:33 1,9 C 97 % 1000,6 hPa 0,2 l/m 4,1 km/h (1 Bft) W-NW 292 0 min 37 W/m 1,5 C 1,9 C 9,7 km/h (2 Bft)
29.03.2018 09:36 2,0 C 97 % 1000,5 hPa 0,0 l/m 4,2 km/h (1 Bft) W-NW 283 0 min 40 W/m 1,6 C 2,0 C 11,3 km/h (2 Bft)
29.03.2018 09:39 2,1 C 97 % 1000,6 hPa 0,0 l/m 3,4 km/h (1 Bft) NW 309 0 min 49 W/m 1,7 C 2,1 C 8,0 km/h (2 Bft)
29.03.2018 09:42 2,2 C 97 % 1000,6 hPa 0,2 l/m 4,0 km/h (1 Bft) NW 325 0 min 58 W/m 1,8 C 2,2 C 11,3 km/h (2 Bft)
29.03.2018 09:45 2,2 C 97 % 1000,6 hPa 0,0 l/m 4,4 km/h (1 Bft) NW 311 0 min 65 W/m 1,8 C 2,2 C 8,0 km/h (2 Bft)
29.03.2018 09:48 2,3 C 97 % 1000,6 hPa 0,0 l/m 3,4 km/h (1 Bft) W-NW 299 0 min 76 W/m 1,9 C 2,3 C 8,0 km/h (2 Bft)
29.03.2018 09:51 2,3 C 97 % 1000,7 hPa 0,2 l/m 4,8 km/h (1 Bft) W 274 0 min 83 W/m 1,9 C 2,3 C 11,3 km/h (2 Bft)
29.03.2018 09:54 2,3 C 97 % 1000,8 hPa 0,0 l/m 5,5 km/h (2 Bft) W-NW 287 0 min 86 W/m 1,9 C 2,3 C 12,9 km/h (3 Bft)
29.03.2018 09:57 2,3 C 97 % 1000,7 hPa 0,0 l/m 3,2 km/h (1 Bft) W 280 0 min 109 W/m 1,9 C 2,3 C 11,3 km/h (2 Bft)
29.03.2018 10:00 2,4 C 97 % 1000,7 hPa 0,2 l/m 4,2 km/h (1 Bft) N-NW 338 0 min 176 W/m 2,0 C 2,4 C 9,7 km/h (2 Bft)
29.03.2018 10:03 2,4 C 97 % 1000,7 hPa 0,0 l/m 5,6 km/h (2 Bft) N-NW 327 0 min 171 W/m 2,0 C 2,4 C 9,7 km/h (2 Bft)
29.03.2018 10:06 2,4 C 97 % 1000,8 hPa 0,2 l/m 3,2 km/h (1 Bft) NW 313 0 min 169 W/m 2,0 C 2,4 C 8,0 km/h (2 Bft)
29.03.2018 10:09 2,5 C 97 % 1000,8 hPa 0,0 l/m 2,7 km/h (1 Bft) NW 313 0 min 171 W/m 2,1 C 2,5 C 4,8 km/h (1 Bft)
29.03.2018 10:12 2,5 C 97 % 1000,8 hPa 0,2 l/m 3,2 km/h (1 Bft) NW 315 0 min 162 W/m 2,1 C 2,5 C 6,4 km/h (2 Bft)
29.03.2018 10:15 2,5 C 97 % 1000,9 hPa 0,0 l/m 6,0 km/h (2 Bft) N-NW 342 0 min 167 W/m 2,1 C 2,5 C 9,7 km/h (2 Bft)
29.03.2018 10:18 2,4 C 96 % 1000,9 hPa 0,0 l/m 5,5 km/h (2 Bft) W-NW 294 0 min 141 W/m 1,8 C 2,4 C 11,3 km/h (2 Bft)
29.03.2018 10:21 2,4 C 96 % 1000,9 hPa 0,2 l/m 6,2 km/h (2 Bft) W 269 0 min 127 W/m 1,8 C 2,4 C 12,9 km/h (3 Bft)
29.03.2018 10:24 2,3 C 96 % 1001,0 hPa 0,2 l/m 5,8 km/h (2 Bft) NW 318 0 min 144 W/m 1,7 C 2,3 C 12,9 km/h (3 Bft)
29.03.2018 10:27 2,3 C 96 % 1001,0 hPa 0,0 l/m 5,4 km/h (2 Bft) NW 313 0 min 132 W/m 1,7 C 2,3 C 12,9 km/h (3 Bft)
29.03.2018 10:30 2,3 C 96 % 1001,0 hPa 0,0 l/m 6,5 km/h (2 Bft) W-NW 296 0 min 132 W/m 1,7 C 2,2 C 11,3 km/h (2 Bft)
29.03.2018 10:33 2,3 C 96 % 1001,1 hPa 0,2 l/m 5,9 km/h (2 Bft) W-NW 293 0 min 137 W/m 1,7 C 2,3 C 11,3 km/h (2 Bft)
29.03.2018 10:36 2,3 C 96 % 1001,0 hPa 0,0 l/m 1,7 km/h (1 Bft) W-NW 290 0 min 149 W/m 1,7 C 2,3 C 6,4 km/h (2 Bft)
29.03.2018 10:39 2,4 C 97 % 1001,1 hPa 0,2 l/m 3,6 km/h (1 Bft) W-NW 297 0 min 141 W/m 2,0 C 2,4 C 9,7 km/h (2 Bft)
29.03.2018 10:42 2,4 C 97 % 1001,2 hPa 0,0 l/m 6,0 km/h (2 Bft) W 274 0 min 153 W/m 2,0 C 2,4 C 12,9 km/h (3 Bft)
29.03.2018 10:45 2,4 C 96 % 1001,2 hPa 0,0 l/m 5,5 km/h (2 Bft) W 280 0 min 156 W/m 1,8 C 2,4 C 11,3 km/h (2 Bft)
29.03.2018 10:48 2,5 C 96 % 1001,3 hPa 0,2 l/m 3,4 km/h (1 Bft) NW 316 0 min 156 W/m 1,9 C 2,5 C 8,0 km/h (2 Bft)
29.03.2018 10:51 2,4 C 96 % 1001,3 hPa 0,2 l/m 4,2 km/h (1 Bft) NW 318 0 min 167 W/m 1,8 C 2,4 C 9,7 km/h (2 Bft)
29.03.2018 10:54 2,5 C 96 % 1001,3 hPa 0,0 l/m 4,2 km/h (1 Bft) W 273 0 min 162 W/m 1,9 C 2,5 C 11,3 km/h (2 Bft)
29.03.2018 10:57 2,6 C 96 % 1001,4 hPa 0,0 l/m 4,7 km/h (1 Bft) W 280 0 min 156 W/m 2,0 C 2,6 C 11,3 km/h (2 Bft)
29.03.2018 11:00 2,6 C 96 % 1001,4 hPa 0,2 l/m 5,8 km/h (2 Bft) NW 307 0 min 186 W/m 2,0 C 2,6 C 14,5 km/h (3 Bft)
29.03.2018 11:03 2,6 C 96 % 1001,4 hPa 0,0 l/m 3,4 km/h (1 Bft) W-NW 296 0 min 202 W/m 2,0 C 2,6 C 8,0 km/h (2 Bft)
29.03.2018 11:06 2,7 C 96 % 1001,4 hPa 0,2 l/m 4,7 km/h (1 Bft) W 271 0 min 197 W/m 2,1 C 2,7 C 11,3 km/h (2 Bft)
29.03.2018 11:09 2,7 C 96 % 1001,4 hPa 0,0 l/m 4,3 km/h (1 Bft) N-NW 328 0 min 241 W/m 2,1 C 2,7 C 9,7 km/h (2 Bft)
29.03.2018 11:12 2,7 C 96 % 1001,4 hPa 0,2 l/m 5,6 km/h (2 Bft) N-NW 329 0 min 250 W/m 2,1 C 2,7 C 12,9 km/h (3 Bft)
29.03.2018 11:15 2,7 C 96 % 1001,4 hPa 0,0 l/m 5,5 km/h (2 Bft) W 279 0 min 251 W/m 2,1 C 2,7 C 9,7 km/h (2 Bft)
29.03.2018 11:18 2,8 C 96 % 1001,5 hPa 0,2 l/m 2,9 km/h (1 Bft) W-NW 300 0 min 255 W/m 2,2 C 2,8 C 9,7 km/h (2 Bft)
29.03.2018 11:21 3,0 C 96 % 1001,5 hPa 0,0 l/m 4,6 km/h (1 Bft) W-NW 290 0 min 236 W/m 2,4 C 3,0 C 8,0 km/h (2 Bft)
29.03.2018 11:24 3,0 C 96 % 1001,6 hPa 0,2 l/m 4,2 km/h (1 Bft) N-NW 331 0 min 223 W/m 2,4 C 3,0 C 8,0 km/h (2 Bft)
29.03.2018 11:27 3,0 C 96 % 1001,6 hPa 0,2 l/m 3,6 km/h (1 Bft) W 270 0 min 220 W/m 2,4 C 3,0 C 11,3 km/h (2 Bft)
29.03.2018 11:30 3,0 C 96 % 1001,6 hPa 0,0 l/m 4,9 km/h (1 Bft) W 275 0 min 216 W/m 2,4 C 3,0 C 11,3 km/h (2 Bft)
29.03.2018 11:33 3,0 C 96 % 1001,6 hPa 0,0 l/m 5,0 km/h (1 Bft) N-NW 344 0 min 218 W/m 2,4 C 3,0 C 9,7 km/h (2 Bft)
29.03.2018 11:36 2,9 C 95 % 1001,7 hPa 0,2 l/m 5,0 km/h (1 Bft) NW 304 0 min 239 W/m 2,2 C 2,9 C 12,9 km/h (3 Bft)
29.03.2018 11:39 3,0 C 95 % 1001,7 hPa 0,2 l/m 3,9 km/h (1 Bft) NW 321 0 min 243 W/m 2,3 C 3,0 C 8,0 km/h (2 Bft)
29.03.2018 11:42 3,0 C 95 % 1001,8 hPa 0,0 l/m 5,2 km/h (1 Bft) N-NW 333 0 min 253 W/m 2,3 C 3,0 C 12,9 km/h (3 Bft)
29.03.2018 11:45 3,0 C 95 % 1001,8 hPa 0,0 l/m 4,1 km/h (1 Bft) NW 313 0 min 206 W/m 2,3 C 3,0 C 8,0 km/h (2 Bft)
29.03.2018 11:48 3,0 C 95 % 1001,9 hPa 0,2 l/m 3,2 km/h (1 Bft) NW 322 0 min 204 W/m 2,3 C 3,0 C 6,4 km/h (2 Bft)
29.03.2018 11:51 3,1 C 95 % 1001,9 hPa 0,2 l/m 4,1 km/h (1 Bft) W-NW 298 0 min 214 W/m 2,4 C 3,1 C 11,3 km/h (2 Bft)
29.03.2018 11:54 3,1 C 95 % 1001,9 hPa 0,0 l/m 4,2 km/h (1 Bft) NW 314 0 min 267 W/m 2,4 C 3,1 C 8,0 km/h (2 Bft)
29.03.2018 11:57 3,1 C 95 % 1001,9 hPa 0,0 l/m 5,5 km/h (2 Bft) NW 322 0 min 260 W/m 2,4 C 3,1 C 8,0 km/h (2 Bft)
29.03.2018 12:00 3,2 C 95 % 1001,9 hPa 0,2 l/m 4,1 km/h (1 Bft) NW 315 0 min 253 W/m 2,5 C 3,2 C 11,3 km/h (2 Bft)
29.03.2018 12:03 3,2 C 95 % 1001,9 hPa 0,2 l/m 4,3 km/h (1 Bft) W-NW 286 0 min 250 W/m 2,5 C 3,2 C 8,0 km/h (2 Bft)
29.03.2018 12:06 3,2 C 95 % 1002,0 hPa 0,0 l/m 2,8 km/h (1 Bft) W-NW 287 0 min 278 W/m 2,5 C 3,2 C 4,8 km/h (1 Bft)
29.03.2018 12:09 3,3 C 95 % 1002,0 hPa 0,0 l/m 3,0 km/h (1 Bft) NW 309 0 min 320 W/m 2,6 C 3,3 C 6,4 km/h (2 Bft)
29.03.2018 12:12 3,3 C 95 % 1002,0 hPa 0,2 l/m 5,2 km/h (1 Bft) W 275 0 min 295 W/m 2,6 C 3,3 C 9,7 km/h (2 Bft)
29.03.2018 12:15 3,4 C 95 % 1002,0 hPa 0,2 l/m 2,3 km/h (1 Bft) W 281 0 min 294 W/m 2,7 C 3,4 C 4,8 km/h (1 Bft)
29.03.2018 12:18 3,4 C 94 % 1002,1 hPa 0,0 l/m 4,7 km/h (1 Bft) N-NW 338 0 min 274 W/m 2,5 C 3,4 C 11,3 km/h (2 Bft)
29.03.2018 12:21 3,4 C 94 % 1002,0 hPa 0,2 l/m 7,5 km/h (2 Bft) W-NW 297 0 min 258 W/m 2,5 C 2,4 C 12,9 km/h (3 Bft)
29.03.2018 12:24 3,3 C 94 % 1002,1 hPa 0,0 l/m 6,0 km/h (2 Bft) NW 304 0 min 262 W/m 2,4 C 3,3 C 12,9 km/h (3 Bft)
29.03.2018 12:27 3,4 C 94 % 1002,1 hPa 0,2 l/m 4,7 km/h (1 Bft) NW 308 0 min 287 W/m 2,5 C 3,4 C 9,7 km/h (2 Bft)
29.03.2018 12:30 3,5 C 95 % 1002,2 hPa 0,0 l/m 5,1 km/h (1 Bft) NW 321 0 min 236 W/m 2,8 C 3,5 C 8,0 km/h (2 Bft)
29.03.2018 12:33 3,4 C 94 % 1002,2 hPa 0,0 l/m 5,0 km/h (1 Bft) W-NW 289 0 min 250 W/m 2,5 C 3,4 C 11,3 km/h (2 Bft)
29.03.2018 12:36 3,3 C 94 % 1002,3 hPa 0,2 l/m 5,0 km/h (1 Bft) W 265 0 min 239 W/m 2,4 C 3,3 C 11,3 km/h (2 Bft)
29.03.2018 12:39 3,4 C 94 % 1002,3 hPa 0,2 l/m 5,1 km/h (1 Bft) N-NW 336 0 min 264 W/m 2,5 C 3,4 C 9,7 km/h (2 Bft)
29.03.2018 12:42 3,6 C 95 % 1002,3 hPa 0,0 l/m 4,5 km/h (1 Bft) W 265 0 min 279 W/m 2,9 C 3,6 C 9,7 km/h (2 Bft)
29.03.2018 12:45 3,6 C 94 % 1002,3 hPa 0,0 l/m 4,9 km/h (1 Bft) NW 306 0 min 327 W/m 2,7 C 3,6 C 12,9 km/h (3 Bft)
29.03.2018 12:48 3,5 C 94 % 1002,4 hPa 0,2 l/m 4,4 km/h (1 Bft) NW 321 0 min 306 W/m 2,6 C 3,5 C 9,7 km/h (2 Bft)
29.03.2018 12:51 3,6 C 94 % 1002,3 hPa 0,2 l/m 4,8 km/h (1 Bft) NW 320 0 min 318 W/m 2,7 C 3,6 C 9,7 km/h (2 Bft)
29.03.2018 12:54 3,7 C 94 % 1002,4 hPa 0,0 l/m 3,3 km/h (1 Bft) NW 309 0 min 257 W/m 2,8 C 3,7 C 8,0 km/h (2 Bft)
29.03.2018 12:57 3,6 C 94 % 1002,5 hPa 0,0 l/m 5,2 km/h (1 Bft) W 273 0 min 269 W/m 2,7 C 3,6 C 9,7 km/h (2 Bft)
29.03.2018 13:00 3,5 C 94 % 1002,4 hPa 0,2 l/m 6,0 km/h (2 Bft) W 269 3 min 422 W/m 2,6 C 3,5 C 11,3 km/h (2 Bft)
29.03.2018 13:03 3,7 C 94 % 1002,5 hPa 0,0 l/m 3,6 km/h (1 Bft) W-NW 300 3 min 431 W/m 2,8 C 3,7 C 8,0 km/h (2 Bft)
29.03.2018 13:06 3,8 C 94 % 1002,5 hPa 0,2 l/m 5,1 km/h (1 Bft) N-NW 344 0 min 313 W/m 2,9 C 3,8 C 12,9 km/h (3 Bft)
29.03.2018 13:09 3,6 C 94 % 1002,6 hPa 0,0 l/m 4,8 km/h (1 Bft) NW 309 0 min 229 W/m 2,7 C 3,6 C 12,9 km/h (3 Bft)
29.03.2018 13:12 3,7 C 94 % 1002,6 hPa 0,2 l/m 4,6 km/h (1 Bft) N-NW 342 0 min 195 W/m 2,8 C 3,7 C 8,0 km/h (2 Bft)
29.03.2018 13:15 3,6 C 94 % 1002,7 hPa 0,0 l/m 4,7 km/h (1 Bft) N-NW 331 0 min 202 W/m 2,7 C 3,6 C 9,7 km/h (2 Bft)
29.03.2018 13:18 3,6 C 93 % 1002,7 hPa 0,2 l/m 4,6 km/h (1 Bft) NW 320 0 min 195 W/m 2,6 C 3,6 C 8,0 km/h (2 Bft)
29.03.2018 13:21 3,4 C 93 % 1002,7 hPa 0,0 l/m 4,7 km/h (1 Bft) W-NW 292 0 min 197 W/m 2,4 C 3,4 C 8,0 km/h (2 Bft)
29.03.2018 13:24 3,5 C 94 % 1002,7 hPa 0,0 l/m 4,4 km/h (1 Bft) W 276 0 min 218 W/m 2,6 C 3,5 C 11,3 km/h (2 Bft)
29.03.2018 13:27 3,6 C 94 % 1002,7 hPa 0,0 l/m 3,9 km/h (1 Bft) W-NW 295 0 min 243 W/m 2,7 C 3,6 C 6,4 km/h (2 Bft)
29.03.2018 13:30 3,6 C 93 % 1002,7 hPa 0,2 l/m 3,2 km/h (1 Bft) W 277 0 min 171 W/m 2,6 C 3,6 C 9,7 km/h (2 Bft)
29.03.2018 13:33 3,5 C 93 % 1002,8 hPa 0,0 l/m 3,9 km/h (1 Bft) W 281 0 min 176 W/m 2,5 C 3,5 C 9,7 km/h (2 Bft)
29.03.2018 13:36 3,6 C 94 % 1002,8 hPa 0,0 l/m 4,5 km/h (1 Bft) N-NW 330 0 min 199 W/m 2,7 C 3,6 C 9,7 km/h (2 Bft)
29.03.2018 13:39 3,7 C 94 % 1002,9 hPa 0,2 l/m 3,8 km/h (1 Bft) NW 323 0 min 156 W/m 2,8 C 3,7 C 6,4 km/h (2 Bft)
29.03.2018 13:42 3,6 C 93 % 1002,9 hPa 0,0 l/m 3,8 km/h (1 Bft) W-NW 295 0 min 162 W/m 2,6 C 3,6 C 11,3 km/h (2 Bft)
29.03.2018 13:45 3,6 C 94 % 1002,9 hPa 0,0 l/m 4,5 km/h (1 Bft) W-NW 284 0 min 172 W/m 2,7 C 3,6 C 9,7 km/h (2 Bft)
29.03.2018 13:48 3,5 C 93 % 1002,9 hPa 0,0 l/m 4,4 km/h (1 Bft) NW 319 0 min 165 W/m 2,5 C 3,5 C 11,3 km/h (2 Bft)
29.03.2018 13:51 3,4 C 93 % 1003,0 hPa 0,0 l/m 4,6 km/h (1 Bft) W-NW 282 0 min 141 W/m 2,4 C 3,4 C 9,7 km/h (2 Bft)
29.03.2018 13:54 3,4 C 93 % 1003,0 hPa 0,0 l/m 4,7 km/h (1 Bft) W-NW 284 0 min 125 W/m 2,4 C 3,4 C 8,0 km/h (2 Bft)
29.03.2018 13:57 3,4 C 93 % 1003,0 hPa 0,0 l/m 4,7 km/h (1 Bft) W-NW 293 0 min 98 W/m 2,4 C 3,4 C 9,7 km/h (2 Bft)
29.03.2018 14:00 3,4 C 93 % 1003,0 hPa 0,0 l/m 4,0 km/h (1 Bft) W-NW 286 0 min 97 W/m 2,4 C 3,4 C 11,3 km/h (2 Bft)
29.03.2018 14:03 3,4 C 93 % 1003,0 hPa 0,2 l/m 3,3 km/h (1 Bft) W-NW 286 0 min 113 W/m 2,4 C 3,4 C 6,4 km/h (2 Bft)
29.03.2018 14:06 3,3 C 93 % 1003,0 hPa 0,0 l/m 5,4 km/h (2 Bft) N 355 0 min 130 W/m 2,3 C 3,3 C 9,7 km/h (2 Bft)
29.03.2018 14:09 3,3 C 93 % 1003,0 hPa 0,0 l/m 4,6 km/h (1 Bft) N 351 0 min 130 W/m 2,3 C 3,3 C 8,0 km/h (2 Bft)
29.03.2018 14:12 3,3 C 94 % 1003,0 hPa 0,0 l/m 3,1 km/h (1 Bft) N 349 0 min 200 W/m 2,4 C 3,3 C 6,4 km/h (2 Bft)
29.03.2018 14:15 3,5 C 94 % 1003,0 hPa 0,0 l/m 3,5 km/h (1 Bft) N-NW 348 0 min 287 W/m 2,6 C 3,5 C 6,4 km/h (2 Bft)
29.03.2018 14:18 3,5 C 94 % 1003,0 hPa 0,0 l/m 3,7 km/h (1 Bft) N-NW 348 0 min 292 W/m 2,6 C 3,5 C 6,4 km/h (2 Bft)
29.03.2018 14:21 3,7 C 94 % 1003,0 hPa 0,0 l/m 4,7 km/h (1 Bft) N-NW 338 0 min 269 W/m 2,8 C 3,7 C 8,0 km/h (2 Bft)
29.03.2018 14:24 3,8 C 94 % 1003,1 hPa 0,0 l/m 5,1 km/h (1 Bft) N-NW 337 0 min 239 W/m 2,9 C 3,8 C 8,0 km/h (2 Bft)
29.03.2018 14:27 3,7 C 93 % 1003,1 hPa 0,0 l/m 3,7 km/h (1 Bft) N-NW 335 0 min 213 W/m 2,7 C 3,7 C 8,0 km/h (2 Bft)
29.03.2018 14:30 3,7 C 93 % 1003,1 hPa 0,0 l/m 4,4 km/h (1 Bft) NW 318 0 min 315 W/m 2,7 C 3,7 C 9,7 km/h (2 Bft)
29.03.2018 14:33 3,7 C 93 % 1003,1 hPa 0,0 l/m 5,6 km/h (2 Bft) N-NW 331 3 min 413 W/m 2,7 C 3,7 C 8,0 km/h (2 Bft)
29.03.2018 14:36 3,8 C 93 % 1003,1 hPa 0,0 l/m 6,1 km/h (2 Bft) N-NW 347 3 min 457 W/m 2,8 C 3,8 C 9,7 km/h (2 Bft)
29.03.2018 14:39 4,0 C 94 % 1003,1 hPa 0,0 l/m 3,7 km/h (1 Bft) NW 322 3 min 403 W/m 3,1 C 4,0 C 8,0 km/h (2 Bft)
29.03.2018 14:42 4,2 C 93 % 1003,2 hPa 0,0 l/m 4,1 km/h (1 Bft) N-NW 345 3 min 343 W/m 3,2 C 4,2 C 8,0 km/h (2 Bft)
29.03.2018 14:45 4,3 C 93 % 1003,3 hPa 0,0 l/m 5,8 km/h (2 Bft) N-NW 342 0 min 278 W/m 3,3 C 4,3 C 11,3 km/h (2 Bft)
29.03.2018 14:48 4,0 C 92 % 1003,3 hPa 0,0 l/m 4,6 km/h (1 Bft) N-NW 346 0 min 202 W/m 2,8 C 4,0 C 8,0 km/h (2 Bft)
29.03.2018 14:51 3,9 C 93 % 1003,3 hPa 0,0 l/m 3,7 km/h (1 Bft) N-NW 329 0 min 218 W/m 2,9 C 3,9 C 6,4 km/h (2 Bft)
29.03.2018 14:54 3,9 C 92 % 1003,2 hPa 0,0 l/m 4,3 km/h (1 Bft) NW 323 0 min 272 W/m 2,7 C 3,9 C 8,0 km/h (2 Bft)
29.03.2018 14:57 3,9 C 93 % 1003,1 hPa 0,0 l/m 3,0 km/h (1 Bft) NW 323 0 min 288 W/m 2,9 C 3,9 C 4,8 km/h (1 Bft)
29.03.2018 15:00 4,2 C 92 % 1003,1 hPa 0,0 l/m 2,1 km/h (1 Bft) NW 323 3 min 381 W/m 3,0 C 4,2 C 4,8 km/h (1 Bft)
29.03.2018 15:03 4,3 C 92 % 1003,1 hPa 0,0 l/m 4,1 km/h (1 Bft) NW 323 0 min 271 W/m 3,1 C 4,3 C 8,0 km/h (2 Bft)
29.03.2018 15:06 4,2 C 91 % 1003,3 hPa 0,0 l/m 4,0 km/h (1 Bft) NW 323 0 min 209 W/m 2,9 C 4,2 C 6,4 km/h (2 Bft)
29.03.2018 15:09 4,0 C 91 % 1003,3 hPa 0,0 l/m 4,4 km/h (1 Bft) N-NW 327 0 min 167 W/m 2,7 C 4,0 C 8,0 km/h (2 Bft)
29.03.2018 15:12 3,9 C 91 % 1003,2 hPa 0,0 l/m 3,3 km/h (1 Bft) N-NW 327 0 min 185 W/m 2,6 C 3,9 C 6,4 km/h (2 Bft)
29.03.2018 15:15 3,9 C 92 % 1003,2 hPa 0,0 l/m 5,6 km/h (2 Bft) N-NW 341 3 min 318 W/m 2,7 C 3,9 C 9,7 km/h (2 Bft)
29.03.2018 15:18 3,8 C 91 % 1003,2 hPa 0,0 l/m 5,2 km/h (1 Bft) N-NW 341 0 min 309 W/m 2,5 C 3,8 C 8,0 km/h (2 Bft)
29.03.2018 15:21 3,7 C 91 % 1003,1 hPa 0,0 l/m 3,1 km/h (1 Bft) N-NW 341 0 min 309 W/m 2,4 C 3,7 C 6,4 km/h (2 Bft)
29.03.2018 15:24 3,9 C 92 % 1003,2 hPa 0,0 l/m 5,3 km/h (1 Bft) NW 320 0 min 241 W/m 2,7 C 3,9 C 8,0 km/h (2 Bft)
29.03.2018 15:27 4,1 C 92 % 1003,2 hPa 0,0 l/m 3,1 km/h (1 Bft) NW 325 0 min 202 W/m 2,9 C 4,1 C 6,4 km/h (2 Bft)
29.03.2018 15:30 4,1 C 91 % 1003,2 hPa 0,0 l/m 3,1 km/h (1 Bft) NW 324 0 min 197 W/m 2,8 C 4,1 C 6,4 km/h (2 Bft)
29.03.2018 15:33 4,1 C 91 % 1003,2 hPa 0,0 l/m 3,8 km/h (1 Bft) N-NW 342 0 min 183 W/m 2,8 C 4,1 C 8,0 km/h (2 Bft)
29.03.2018 15:36 3,9 C 91 % 1003,2 hPa 0,0 l/m 4,6 km/h (1 Bft) N-NW 336 0 min 207 W/m 2,6 C 3,9 C 9,7 km/h (2 Bft)
29.03.2018 15:39 4,1 C 92 % 1003,2 hPa 0,0 l/m 4,6 km/h (1 Bft) N 355 0 min 237 W/m 2,9 C 4,1 C 9,7 km/h (2 Bft)
29.03.2018 15:42 3,8 C 91 % 1003,2 hPa 0,0 l/m 3,2 km/h (1 Bft) N 355 0 min 269 W/m 2,5 C 3,8 C 6,4 km/h (2 Bft)
29.03.2018 15:45 3,9 C 91 % 1003,3 hPa 0,0 l/m 4,1 km/h (1 Bft) N 355 0 min 227 W/m 2,6 C 3,9 C 6,4 km/h (2 Bft)
29.03.2018 15:48 4,0 C 92 % 1003,2 hPa 0,0 l/m 4,0 km/h (1 Bft) N 355 0 min 202 W/m 2,8 C 4,0 C 6,4 km/h (2 Bft)
29.03.2018 15:51 4,1 C 92 % 1003,3 hPa 0,0 l/m 4,5 km/h (1 Bft) NW 326 0 min 183 W/m 2,9 C 4,1 C 8,0 km/h (2 Bft)
29.03.2018 15:54 4,1 C 91 % 1003,3 hPa 0,0 l/m 3,9 km/h (1 Bft) N-NW 335 0 min 169 W/m 2,8 C 4,1 C 6,4 km/h (2 Bft)
29.03.2018 15:57 4,0 C 91 % 1003,4 hPa 0,0 l/m 4,6 km/h (1 Bft) N-NW 346 0 min 149 W/m 2,7 C 4,0 C 9,7 km/h (2 Bft)
29.03.2018 16:00 3,9 C 91 % 1003,4 hPa 0,0 l/m 5,1 km/h (1 Bft) NW 323 0 min 160 W/m 2,6 C 3,9 C 9,7 km/h (2 Bft)
29.03.2018 16:03 3,9 C 91 % 1003,4 hPa 0,0 l/m 3,9 km/h (1 Bft) N-NW 331 0 min 216 W/m 2,6 C 3,9 C 6,4 km/h (2 Bft)
29.03.2018 16:06 4,0 C 91 % 1003,4 hPa 0,0 l/m 4,0 km/h (1 Bft) N-NW 329 0 min 195 W/m 2,7 C 4,0 C 9,7 km/h (2 Bft)
29.03.2018 16:09 4,0 C 91 % 1003,4 hPa 0,0 l/m 6,2 km/h (2 Bft) N-NW 332 0 min 190 W/m 2,7 C 4,0 C 14,5 km/h (3 Bft)
29.03.2018 16:12 3,9 C 91 % 1003,4 hPa 0,0 l/m 7,9 km/h (2 Bft) NW 325 0 min 162 W/m 2,6 C 2,5 C 12,9 km/h (3 Bft)
29.03.2018 16:15 3,9 C 91 % 1003,5 hPa 0,0 l/m 6,7 km/h (2 Bft) N-NW 336 0 min 165 W/m 2,6 C 3,6 C 9,7 km/h (2 Bft)
29.03.2018 16:18 3,9 C 91 % 1003,5 hPa 0,0 l/m 6,8 km/h (2 Bft) N 360 0 min 186 W/m 2,6 C 3,5 C 9,7 km/h (2 Bft)
29.03.2018 16:21 4,0 C 91 % 1003,5 hPa 0,0 l/m 5,1 km/h (1 Bft) N-NW 336 0 min 130 W/m 2,7 C 4,0 C 9,7 km/h (2 Bft)
29.03.2018 16:24 4,0 C 91 % 1003,5 hPa 0,0 l/m 4,6 km/h (1 Bft) N-NW 331 0 min 121 W/m 2,7 C 4,0 C 9,7 km/h (2 Bft)
29.03.2018 16:27 4,0 C 91 % 1003,5 hPa 0,0 l/m 4,9 km/h (1 Bft) N-NW 327 0 min 151 W/m 2,7 C 4,0 C 9,7 km/h (2 Bft)
29.03.2018 16:30 3,9 C 90 % 1003,5 hPa 0,0 l/m 5,0 km/h (1 Bft) N 355 0 min 214 W/m 2,4 C 3,9 C 12,9 km/h (3 Bft)
29.03.2018 16:33 3,9 C 90 % 1003,6 hPa 0,0 l/m 6,5 km/h (2 Bft) N 5 0 min 186 W/m 2,4 C 3,8 C 12,9 km/h (3 Bft)
29.03.2018 16:36 3,9 C 90 % 1003,6 hPa 0,0 l/m 3,0 km/h (1 Bft) N 5 0 min 139 W/m 2,4 C 3,9 C 8,0 km/h (2 Bft)
29.03.2018 16:39 3,9 C 90 % 1003,5 hPa 0,0 l/m 5,6 km/h (2 Bft) NW 317 0 min 181 W/m 2,4 C 3,9 C 12,9 km/h (3 Bft)
29.03.2018 16:42 4,1 C 91 % 1003,6 hPa 0,0 l/m 6,2 km/h (2 Bft) N-NW 346 0 min 137 W/m 2,8 C 4,1 C 9,7 km/h (2 Bft)
29.03.2018 16:45 4,1 C 90 % 1003,5 hPa 0,0 l/m 5,3 km/h (1 Bft) N-NW 348 0 min 153 W/m 2,6 C 4,1 C 9,7 km/h (2 Bft)
29.03.2018 16:48 4,1 C 90 % 1003,5 hPa 0,0 l/m 4,7 km/h (1 Bft) NW 317 0 min 172 W/m 2,6 C 4,1 C 9,7 km/h (2 Bft)
29.03.2018 16:51 4,1 C 90 % 1003,6 hPa 0,0 l/m 4,4 km/h (1 Bft) N-NO 12 3 min 258 W/m 2,6 C 4,1 C 8,0 km/h (2 Bft)
29.03.2018 16:54 4,2 C 90 % 1003,6 hPa 0,0 l/m 6,2 km/h (2 Bft) N-NW 340 3 min 243 W/m 2,7 C 4,2 C 9,7 km/h (2 Bft)
29.03.2018 16:57 4,2 C 90 % 1003,6 hPa 0,0 l/m 6,3 km/h (2 Bft) N 9 0 min 174 W/m 2,7 C 4,2 C 12,9 km/h (3 Bft)
29.03.2018 17:00 4,2 C 90 % 1003,6 hPa 0,0 l/m 5,7 km/h (2 Bft) N-NW 346 3 min 278 W/m 2,7 C 4,2 C 12,9 km/h (3 Bft)
29.03.2018 17:03 4,3 C 90 % 1003,6 hPa 0,0 l/m 5,9 km/h (2 Bft) N-NW 336 3 min 404 W/m 2,8 C 4,3 C 12,9 km/h (3 Bft)
29.03.2018 17:06 4,3 C 89 % 1003,5 hPa 0,0 l/m 3,6 km/h (1 Bft) N-NW 344 3 min 334 W/m 2,7 C 4,3 C 8,0 km/h (2 Bft)
29.03.2018 17:09 4,3 C 88 % 1003,5 hPa 0,0 l/m 7,1 km/h (2 Bft) N 360 0 min 142 W/m 2,5 C 3,7 C 14,5 km/h (3 Bft)
29.03.2018 17:12 4,1 C 88 % 1003,5 hPa 0,0 l/m 5,8 km/h (2 Bft) N 360 0 min 155 W/m 2,3 C 4,1 C 9,7 km/h (2 Bft)
29.03.2018 17:15 3,9 C 88 % 1003,5 hPa 0,0 l/m 4,4 km/h (1 Bft) N 355 0 min 183 W/m 2,1 C 3,9 C 6,4 km/h (2 Bft)
29.03.2018 17:18 4,0 C 89 % 1003,5 hPa 0,0 l/m 6,4 km/h (2 Bft) N-NW 336 3 min 288 W/m 2,4 C 4,0 C 12,9 km/h (3 Bft)
29.03.2018 17:21 4,1 C 88 % 1003,5 hPa 0,0 l/m 3,1 km/h (1 Bft) N 5 3 min 387 W/m 2,3 C 4,1 C 6,4 km/h (2 Bft)
29.03.2018 17:24 4,3 C 88 % 1003,5 hPa 0,0 l/m 2,6 km/h (1 Bft) N 9 3 min 350 W/m 2,5 C 4,3 C 8,0 km/h (2 Bft)
29.03.2018 17:27 4,5 C 88 % 1003,6 hPa 0,0 l/m 4,9 km/h (1 Bft) N 350 3 min 295 W/m 2,7 C 4,5 C 14,5 km/h (3 Bft)
29.03.2018 17:30 4,4 C 87 % 1003,6 hPa 0,0 l/m 3,9 km/h (1 Bft) N-NW 334 3 min 323 W/m 2,4 C 4,4 C 8,0 km/h (2 Bft)
29.03.2018 17:33 4,6 C 88 % 1003,5 hPa 0,0 l/m 7,6 km/h (2 Bft) N 5 3 min 230 W/m 2,8 C 3,5 C 14,5 km/h (3 Bft)
29.03.2018 17:36 4,4 C 87 % 1003,6 hPa 0,0 l/m 4,3 km/h (1 Bft) N-NW 329 3 min 227 W/m 2,4 C 4,4 C 8,0 km/h (2 Bft)
29.03.2018 17:39 4,3 C 88 % 1003,6 hPa 0,0 l/m 6,7 km/h (2 Bft) N-NW 340 3 min 262 W/m 2,5 C 4,0 C 14,5 km/h (3 Bft)
29.03.2018 17:42 4,3 C 87 % 1003,6 hPa 0,0 l/m 3,9 km/h (1 Bft) N-NW 343 3 min 265 W/m 2,3 C 4,3 C 8,0 km/h (2 Bft)
29.03.2018 17:45 4,4 C 87 % 1003,6 hPa 0,0 l/m 3,6 km/h (1 Bft) N-NW 341 3 min 288 W/m 2,4 C 4,4 C 8,0 km/h (2 Bft)
29.03.2018 17:48 4,2 C 86 % 1003,7 hPa 0,0 l/m 3,2 km/h (1 Bft) N-NW 341 3 min 262 W/m 2,1 C 4,2 C 4,8 km/h (1 Bft)
29.03.2018 17:51 4,2 C 86 % 1003,7 hPa 0,0 l/m 2,6 km/h (1 Bft) N-NW 342 3 min 244 W/m 2,1 C 4,2 C 4,8 km/h (1 Bft)
29.03.2018 17:54 4,2 C 86 % 1003,7 hPa 0,0 l/m 1,7 km/h (1 Bft) N-NW 342 3 min 197 W/m 2,1 C 4,2 C 3,2 km/h (1 Bft)
29.03.2018 17:57 4,1 C 85 % 1003,7 hPa 0,0 l/m 3,2 km/h (1 Bft) N-NW 346 0 min 100 W/m 1,8 C 4,1 C 8,0 km/h (2 Bft)
29.03.2018 18:00 4,0 C 86 % 1003,8 hPa 0,0 l/m 1,4 km/h (1 Bft) N-NW 346 0 min 102 W/m 1,9 C 4,0 C 4,8 km/h (1 Bft)
29.03.2018 18:03 4,0 C 86 % 1003,8 hPa 0,0 l/m 2,2 km/h (1 Bft) N-NW 346 0 min 86 W/m 1,9 C 4,0 C 6,4 km/h (2 Bft)
29.03.2018 18:06 3,9 C 86 % 1003,8 hPa 0,0 l/m 3,1 km/h (1 Bft) N 360 0 min 72 W/m 1,8 C 3,9 C 6,4 km/h (2 Bft)
29.03.2018 18:09 3,8 C 86 % 1003,8 hPa 0,0 l/m 1,8 km/h (1 Bft) N 360 0 min 60 W/m 1,7 C 3,8 C 4,8 km/h (1 Bft)
29.03.2018 18:12 3,8 C 87 % 1003,8 hPa 0,0 l/m 3,7 km/h (1 Bft) N-NW 346 0 min 54 W/m 1,8 C 3,8 C 8,0 km/h (2 Bft)
29.03.2018 18:15 3,8 C 87 % 1003,8 hPa 0,0 l/m 3,5 km/h (1 Bft) N 350 0 min 46 W/m 1,8 C 3,8 C 6,4 km/h (2 Bft)
29.03.2018 18:18 3,7 C 87 % 1003,8 hPa 0,0 l/m 1,8 km/h (1 Bft) N 350 0 min 47 W/m 1,7 C 3,7 C 3,2 km/h (1 Bft)
29.03.2018 18:21 3,7 C 88 % 1003,8 hPa 0,0 l/m 1,8 km/h (1 Bft) N 350 0 min 44 W/m 1,9 C 3,7 C 3,2 km/h (1 Bft)
29.03.2018 18:24 3,7 C 88 % 1003,9 hPa 0,0 l/m 1,4 km/h (1 Bft) N 350 0 min 33 W/m 1,9 C 3,7 C 3,2 km/h (1 Bft)
29.03.2018 18:27 3,7 C 88 % 1003,8 hPa 0,0 l/m 2,0 km/h (1 Bft) N 350 0 min 32 W/m 1,9 C 3,7 C 3,2 km/h (1 Bft)
29.03.2018 18:30 3,7 C 88 % 1003,9 hPa 0,0 l/m 1,7 km/h (1 Bft) N 350 0 min 25 W/m 1,9 C 3,7 C 3,2 km/h (1 Bft)
29.03.2018 18:33 3,7 C 88 % 1004,0 hPa 0,0 l/m 1,4 km/h (1 Bft) N 350 0 min 21 W/m 1,9 C 3,7 C 3,2 km/h (1 Bft)
29.03.2018 18:36 3,7 C 89 % 1004,0 hPa 0,0 l/m 3,3 km/h (1 Bft) N 350 0 min 18 W/m 2,1 C 3,7 C 6,4 km/h (2 Bft)
29.03.2018 18:39 3,7 C 89 % 1004,0 hPa 0,0 l/m 3,1 km/h (1 Bft) N 350 0 min 23 W/m 2,1 C 3,7 C 6,4 km/h (2 Bft)
29.03.2018 18:42 3,6 C 89 % 1004,1 hPa 0,0 l/m 3,5 km/h (1 Bft) N 350 0 min 19 W/m 2,0 C 3,6 C 6,4 km/h (2 Bft)
29.03.2018 18:45 3,6 C 89 % 1004,1 hPa 0,0 l/m 2,7 km/h (1 Bft) N 360 0 min 16 W/m 2,0 C 3,6 C 9,7 km/h (2 Bft)
29.03.2018 18:48 3,5 C 89 % 1004,2 hPa 0,2 l/m 3,3 km/h (1 Bft) N 355 0 min 16 W/m 1,9 C 3,5 C 8,0 km/h (2 Bft)
29.03.2018 18:51 3,5 C 89 % 1004,2 hPa 0,0 l/m 2,4 km/h (1 Bft) N 355 0 min 16 W/m 1,9 C 3,5 C 6,4 km/h (2 Bft)
29.03.2018 18:54 3,5 C 89 % 1004,3 hPa 0,0 l/m 2,2 km/h (1 Bft) N 355 0 min 16 W/m 1,9 C 3,5 C 4,8 km/h (1 Bft)
29.03.2018 18:57 3,5 C 89 % 1004,4 hPa 0,0 l/m 3,5 km/h (1 Bft) N 351 0 min 19 W/m 1,9 C 3,5 C 8,0 km/h (2 Bft)
29.03.2018 19:00 3,5 C 89 % 1004,4 hPa 0,0 l/m 3,2 km/h (1 Bft) N-NW 346 0 min 19 W/m 1,9 C 3,5 C 8,0 km/h (2 Bft)
29.03.2018 19:03 3,5 C 89 % 1004,5 hPa 0,0 l/m 3,0 km/h (1 Bft) N-NW 346 0 min 23 W/m 1,9 C 3,5 C 6,4 km/h (2 Bft)
29.03.2018 19:06 3,5 C 89 % 1004,5 hPa 0,0 l/m 3,9 km/h (1 Bft) N-NW 346 0 min 18 W/m 1,9 C 3,5 C 8,0 km/h (2 Bft)
29.03.2018 19:09 3,5 C 90 % 1004,6 hPa 0,0 l/m 3,5 km/h (1 Bft) N-NW 346 0 min 16 W/m 2,0 C 3,5 C 8,0 km/h (2 Bft)
29.03.2018 19:12 3,6 C 90 % 1004,6 hPa 0,0 l/m 2,4 km/h (1 Bft) N-NW 346 0 min 12 W/m 2,1 C 3,6 C 6,4 km/h (2 Bft)
29.03.2018 19:15 3,6 C 90 % 1004,7 hPa 0,0 l/m 2,7 km/h (1 Bft) N-NW 346 0 min 12 W/m 2,1 C 3,6 C 6,4 km/h (2 Bft)
29.03.2018 19:18 3,6 C 90 % 1004,7 hPa 0,0 l/m 3,0 km/h (1 Bft) N-NW 346 0 min 14 W/m 2,1 C 3,6 C 6,4 km/h (2 Bft)
29.03.2018 19:21 3,6 C 90 % 1004,7 hPa 0,0 l/m 3,4 km/h (1 Bft) N-NW 346 0 min 12 W/m 2,1 C 3,6 C 6,4 km/h (2 Bft)
29.03.2018 19:24 3,6 C 90 % 1004,7 hPa 0,0 l/m 3,6 km/h (1 Bft) N-NW 343 0 min 12 W/m 2,1 C 3,6 C 8,0 km/h (2 Bft)
29.03.2018 19:27 3,5 C 90 % 1004,8 hPa 0,0 l/m 2,3 km/h (1 Bft) N-NW 343 0 min 12 W/m 2,0 C 3,5 C 4,8 km/h (1 Bft)
29.03.2018 19:30 3,5 C 90 % 1004,8 hPa 0,0 l/m 2,7 km/h (1 Bft) N-NW 343 0 min 14 W/m 2,0 C 3,5 C 4,8 km/h (1 Bft)
29.03.2018 19:33 3,5 C 90 % 1004,8 hPa 0,0 l/m 2,1 km/h (1 Bft) N-NW 343 0 min 14 W/m 2,0 C 3,5 C 3,2 km/h (1 Bft)
29.03.2018 19:36 3,5 C 90 % 1004,9 hPa 0,0 l/m 2,1 km/h (1 Bft) N-NW 343 0 min 12 W/m 2,0 C 3,5 C 4,8 km/h (1 Bft)
29.03.2018 19:39 3,5 C 90 % 1004,9 hPa 0,0 l/m 3,0 km/h (1 Bft) N-NW 343 0 min 12 W/m 2,0 C 3,5 C 6,4 km/h (2 Bft)
29.03.2018 19:42 3,5 C 90 % 1004,9 hPa 0,0 l/m 2,6 km/h (1 Bft) N-NW 343 3 min 11 W/m 2,0 C 3,5 C 4,8 km/h (1 Bft)
29.03.2018 19:45 3,5 C 90 % 1004,9 hPa 0,0 l/m 2,8 km/h (1 Bft) N-NW 347 0 min 7 W/m 2,0 C 3,5 C 6,4 km/h (2 Bft)
29.03.2018 19:48 3,5 C 90 % 1004,9 hPa 0,0 l/m 2,5 km/h (1 Bft) N-NW 347 0 min 5 W/m 2,0 C 3,5 C 4,8 km/h (1 Bft)
29.03.2018 19:51 3,4 C 90 % 1004,9 hPa 0,0 l/m 2,6 km/h (1 Bft) N-NW 347 0 min 5 W/m 1,9 C 3,4 C 6,4 km/h (2 Bft)
29.03.2018 19:54 3,4 C 90 % 1004,9 hPa 0,0 l/m 2,7 km/h (1 Bft) N-NW 347 0 min 0 W/m 1,9 C 3,4 C 4,8 km/h (1 Bft)
29.03.2018 19:57 3,4 C 90 % 1005,0 hPa 0,0 l/m 3,0 km/h (1 Bft) N-NW 348 0 min 0 W/m 1,9 C 3,4 C 6,4 km/h (2 Bft)
29.03.2018 20:00 3,4 C 90 % 1005,0 hPa 0,0 l/m 2,5 km/h (1 Bft) N 349 0 min 0 W/m 1,9 C 3,4 C 6,4 km/h (2 Bft)
29.03.2018 20:03 3,3 C 90 % 1005,0 hPa 0,0 l/m 2,1 km/h (1 Bft) N 349 0 min 0 W/m 1,8 C 3,3 C 4,8 km/h (1 Bft)
29.03.2018 20:06 3,3 C 90 % 1005,1 hPa 0,0 l/m 2,7 km/h (1 Bft) N 349 0 min 0 W/m 1,8 C 3,3 C 4,8 km/h (1 Bft)
29.03.2018 20:09 3,3 C 90 % 1005,1 hPa 0,0 l/m 3,8 km/h (1 Bft) N 11 0 min 0 W/m 1,8 C 3,3 C 8,0 km/h (2 Bft)
29.03.2018 20:12 3,2 C 90 % 1005,1 hPa 0,0 l/m 3,8 km/h (1 Bft) N-NO 12 0 min 0 W/m 1,7 C 3,2 C 4,8 km/h (1 Bft)
29.03.2018 20:15 3,2 C 90 % 1005,1 hPa 0,0 l/m 3,9 km/h (1 Bft) N-NO 17 0 min 0 W/m 1,7 C 3,2 C 8,0 km/h (2 Bft)
29.03.2018 20:18 3,1 C 90 % 1005,1 hPa 0,0 l/m 4,1 km/h (1 Bft) N-NO 18 0 min 0 W/m 1,6 C 3,1 C 6,4 km/h (2 Bft)
29.03.2018 20:21 3,1 C 90 % 1005,1 hPa 0,0 l/m 3,4 km/h (1 Bft) N-NO 18 0 min 0 W/m 1,6 C 3,1 C 6,4 km/h (2 Bft)
29.03.2018 20:24 3,0 C 90 % 1005,2 hPa 0,0 l/m 2,7 km/h (1 Bft) N-NO 22 0 min 0 W/m 1,5 C 3,0 C 4,8 km/h (1 Bft)
29.03.2018 20:27 2,9 C 90 % 1005,2 hPa 0,0 l/m 2,3 km/h (1 Bft) N-NO 22 0 min 0 W/m 1,4 C 2,9 C 4,8 km/h (1 Bft)
29.03.2018 20:30 2,8 C 90 % 1005,3 hPa 0,0 l/m 1,8 km/h (1 Bft) N-NO 22 0 min 0 W/m 1,3 C 2,8 C 3,2 km/h (1 Bft)
29.03.2018 20:33 2,8 C 90 % 1005,4 hPa 0,0 l/m 2,0 km/h (1 Bft) N-NO 22 0 min 0 W/m 1,3 C 2,8 C 3,2 km/h (1 Bft)
29.03.2018 20:36 2,7 C 90 % 1005,4 hPa 0,0 l/m 3,0 km/h (1 Bft) N-NO 22 0 min 0 W/m 1,2 C 2,7 C 6,4 km/h (2 Bft)
29.03.2018 20:39 2,7 C 90 % 1005,4 hPa 0,0 l/m 1,8 km/h (1 Bft) N-NO 22 0 min 0 W/m 1,2 C 2,7 C 3,2 km/h (1 Bft)
29.03.2018 20:42 2,6 C 90 % 1005,5 hPa 0,0 l/m 0,8 km/h (0 Bft) N-NO 22 0 min 0 W/m 1,1 C 2,6 C 3,2 km/h (1 Bft)
29.03.2018 20:45 2,6 C 90 % 1005,5 hPa 0,0 l/m 0,7 km/h (0 Bft) N-NO 22 0 min 0 W/m 1,1 C 2,6 C 1,6 km/h (1 Bft)
29.03.2018 20:48 2,5 C 90 % 1005,5 hPa 0,0 l/m 1,7 km/h (1 Bft) N-NO 22 0 min 0 W/m 1,0 C 2,5 C 4,8 km/h (1 Bft)
29.03.2018 20:51 2,4 C 90 % 1005,6 hPa 0,0 l/m 1,0 km/h (0 Bft) N-NO 22 0 min 0 W/m 0,9 C 2,4 C 3,2 km/h (1 Bft)
29.03.2018 20:54 2,4 C 90 % 1005,5 hPa 0,0 l/m 1,5 km/h (1 Bft) N-NO 22 0 min 0 W/m 0,9 C 2,4 C 3,2 km/h (1 Bft)
29.03.2018 20:57 2,3 C 90 % 1005,6 hPa 0,0 l/m 1,1 km/h (1 Bft) N-NO 22 0 min 0 W/m 0,8 C 2,3 C 3,2 km/h (1 Bft)
29.03.2018 21:00 2,3 C 90 % 1005,7 hPa 0,0 l/m 1,0 km/h (0 Bft) N-NO 22 0 min 0 W/m 0,8 C 2,3 C 3,2 km/h (1 Bft)
29.03.2018 21:03 2,2 C 90 % 1005,7 hPa 0,0 l/m 0,6 km/h (0 Bft) N-NO 22 0 min 0 W/m 0,7 C 2,2 C 3,2 km/h (1 Bft)
29.03.2018 21:06 2,2 C 90 % 1005,7 hPa 0,0 l/m 1,4 km/h (1 Bft) N-NO 22 0 min 0 W/m 0,7 C 2,2 C 3,2 km/h (1 Bft)
29.03.2018 21:09 2,1 C 90 % 1005,7 hPa 0,0 l/m 2,4 km/h (1 Bft) N-NO 24 0 min 0 W/m 0,6 C 2,1 C 6,4 km/h (2 Bft)
29.03.2018 21:12 2,1 C 90 % 1005,7 hPa 0,0 l/m 0,6 km/h (0 Bft) N-NO 24 0 min 0 W/m 0,6 C 2,1 C 1,6 km/h (1 Bft)
29.03.2018 21:15 2,0 C 91 % 1005,8 hPa 0,0 l/m 0,9 km/h (0 Bft) N-NO 24 0 min 0 W/m 0,7 C 2,0 C 3,2 km/h (1 Bft)
29.03.2018 21:18 2,0 C 91 % 1005,8 hPa 0,0 l/m 1,7 km/h (1 Bft) N-NO 24 0 min 0 W/m 0,7 C 2,0 C 3,2 km/h (1 Bft)
29.03.2018 21:21 1,9 C 90 % 1005,8 hPa 0,0 l/m 1,2 km/h (1 Bft) N-NO 24 0 min 0 W/m 0,4 C 1,9 C 3,2 km/h (1 Bft)
29.03.2018 21:24 1,9 C 91 % 1005,9 hPa 0,0 l/m 1,5 km/h (1 Bft) N-NO 24 0 min 0 W/m 0,6 C 1,9 C 4,8 km/h (1 Bft)
29.03.2018 21:27 1,9 C 91 % 1005,9 hPa 0,0 l/m 0,8 km/h (0 Bft) N-NO 24 0 min 0 W/m 0,6 C 1,9 C 3,2 km/h (1 Bft)
29.03.2018 21:30 1,9 C 91 % 1006,0 hPa 0,0 l/m 2,2 km/h (1 Bft) N-NO 24 0 min 0 W/m 0,6 C 1,9 C 4,8 km/h (1 Bft)
29.03.2018 21:33 1,9 C 91 % 1006,0 hPa 0,0 l/m 2,5 km/h (1 Bft) N-NO 24 0 min 0 W/m 0,6 C 1,9 C 8,0 km/h (2 Bft)
29.03.2018 21:36 1,8 C 91 % 1006,1 hPa 0,0 l/m 2,1 km/h (1 Bft) N-NO 24 0 min 0 W/m 0,5 C 1,8 C 4,8 km/h (1 Bft)
29.03.2018 21:39 1,8 C 91 % 1006,1 hPa 0,0 l/m 2,6 km/h (1 Bft) N-NO 24 0 min 0 W/m 0,5 C 1,8 C 4,8 km/h (1 Bft)
29.03.2018 21:42 1,8 C 91 % 1006,1 hPa 0,0 l/m 1,3 km/h (1 Bft) N-NO 24 0 min 0 W/m 0,5 C 1,8 C 3,2 km/h (1 Bft)
29.03.2018 21:45 1,8 C 91 % 1006,1 hPa 0,0 l/m 1,8 km/h (1 Bft) N-NO 24 0 min 0 W/m 0,5 C 1,8 C 3,2 km/h (1 Bft)
29.03.2018 21:48 1,8 C 91 % 1006,2 hPa 0,0 l/m 1,2 km/h (1 Bft) N-NO 24 0 min 0 W/m 0,5 C 1,8 C 3,2 km/h (1 Bft)
29.03.2018 21:51 1,7 C 91 % 1006,2 hPa 0,0 l/m 1,8 km/h (1 Bft) N-NO 24 0 min 0 W/m 0,4 C 1,7 C 4,8 km/h (1 Bft)
29.03.2018 21:54 1,7 C 91 % 1006,3 hPa 0,0 l/m 1,2 km/h (1 Bft) N-NO 24 0 min 0 W/m 0,4 C 1,7 C 4,8 km/h (1 Bft)
29.03.2018 21:57 1,6 C 91 % 1006,3 hPa 0,0 l/m 0,4 km/h (0 Bft) N-NO 24 0 min 0 W/m 0,3 C 1,6 C 1,6 km/h (1 Bft)
29.03.2018 22:00 1,6 C 91 % 1006,3 hPa 0,0 l/m 1,2 km/h (1 Bft) N-NO 24 0 min 0 W/m 0,3 C 1,6 C 3,2 km/h (1 Bft)
29.03.2018 22:03 1,6 C 91 % 1006,4 hPa 0,0 l/m 1,2 km/h (1 Bft) N-NO 24 0 min 0 W/m 0,3 C 1,6 C 4,8 km/h (1 Bft)
29.03.2018 22:06 1,5 C 91 % 1006,4 hPa 0,0 l/m 2,1 km/h (1 Bft) N-NO 24 0 min 0 W/m 0,2 C 1,5 C 4,8 km/h (1 Bft)
29.03.2018 22:09 1,5 C 91 % 1006,4 hPa 0,0 l/m 1,9 km/h (1 Bft) N-NO 24 0 min 0 W/m 0,2 C 1,5 C 4,8 km/h (1 Bft)
29.03.2018 22:12 1,4 C 91 % 1006,5 hPa 0,0 l/m 1,5 km/h (1 Bft) N-NO 24 0 min 0 W/m 0,1 C 1,4 C 3,2 km/h (1 Bft)
29.03.2018 22:15 1,4 C 91 % 1006,5 hPa 0,0 l/m 2,0 km/h (1 Bft) N-NO 24 0 min 0 W/m 0,1 C 1,4 C 3,2 km/h (1 Bft)
29.03.2018 22:18 1,4 C 91 % 1006,6 hPa 0,0 l/m 1,5 km/h (1 Bft) N-NO 24 0 min 0 W/m 0,1 C 1,4 C 3,2 km/h (1 Bft)
29.03.2018 22:21 1,4 C 91 % 1006,5 hPa 0,0 l/m 2,3 km/h (1 Bft) N-NO 24 0 min 0 W/m 0,1 C 1,4 C 4,8 km/h (1 Bft)
29.03.2018 22:24 1,3 C 92 % 1006,6 hPa 0,0 l/m 2,4 km/h (1 Bft) N-NO 24 0 min 0 W/m 0,1 C 1,3 C 6,4 km/h (2 Bft)
29.03.2018 22:27 1,3 C 92 % 1006,6 hPa 0,0 l/m 3,2 km/h (1 Bft) N-NO 19 0 min 0 W/m 0,1 C 1,3 C 6,4 km/h (2 Bft)
29.03.2018 22:30 1,3 C 92 % 1006,5 hPa 0,0 l/m 3,2 km/h (1 Bft) O-NO 74 0 min 0 W/m 0,1 C 1,3 C 8,0 km/h (2 Bft)
29.03.2018 22:33 1,3 C 92 % 1006,6 hPa 0,0 l/m 3,2 km/h (1 Bft) O-NO 73 0 min 0 W/m 0,1 C 1,3 C 8,0 km/h (2 Bft)
29.03.2018 22:36 1,2 C 92 % 1006,7 hPa 0,0 l/m 2,7 km/h (1 Bft) O-NO 73 0 min 0 W/m 0,0 C 1,2 C 4,8 km/h (1 Bft)
29.03.2018 22:39 1,2 C 92 % 1006,8 hPa 0,0 l/m 2,1 km/h (1 Bft) O-NO 71 0 min 0 W/m 0,0 C 1,2 C 4,8 km/h (1 Bft)
29.03.2018 22:42 1,2 C 92 % 1006,7 hPa 0,0 l/m 1,3 km/h (1 Bft) O-NO 71 0 min 0 W/m 0,0 C 1,2 C 3,2 km/h (1 Bft)
29.03.2018 22:45 1,2 C 92 % 1006,8 hPa 0,0 l/m 4,3 km/h (1 Bft) O-NO 63 0 min 0 W/m 0,0 C 1,2 C 8,0 km/h (2 Bft)
29.03.2018 22:48 1,2 C 92 % 1006,8 hPa 0,0 l/m 3,7 km/h (1 Bft) O-NO 63 0 min 0 W/m 0,0 C 1,2 C 8,0 km/h (2 Bft)
29.03.2018 22:51 1,2 C 92 % 1006,7 hPa 0,0 l/m 2,4 km/h (1 Bft) O-NO 63 0 min 0 W/m 0,0 C 1,2 C 4,8 km/h (1 Bft)
29.03.2018 22:54 1,2 C 92 % 1006,7 hPa 0,0 l/m 1,7 km/h (1 Bft) O-NO 63 0 min 0 W/m 0,0 C 1,2 C 3,2 km/h (1 Bft)
29.03.2018 22:57 1,2 C 92 % 1006,7 hPa 0,0 l/m 2,7 km/h (1 Bft) O-NO 63 0 min 0 W/m 0,0 C 1,2 C 6,4 km/h (2 Bft)
29.03.2018 23:00 1,2 C 92 % 1006,7 hPa 0,0 l/m 3,7 km/h (1 Bft) O-NO 64 0 min 0 W/m 0,0 C 1,2 C 6,4 km/h (2 Bft)
29.03.2018 23:03 1,1 C 92 % 1006,7 hPa 0,0 l/m 2,8 km/h (1 Bft) O-NO 63 0 min 0 W/m -0,1 C 1,1 C 4,8 km/h (1 Bft)
29.03.2018 23:06 1,1 C 92 % 1006,7 hPa 0,0 l/m 2,7 km/h (1 Bft) O 81 0 min 0 W/m -0,1 C 1,1 C 4,8 km/h (1 Bft)
29.03.2018 23:09 1,1 C 92 % 1006,7 hPa 0,0 l/m 3,5 km/h (1 Bft) O 82 0 min 0 W/m -0,1 C 1,1 C 8,0 km/h (2 Bft)
29.03.2018 23:12 1,1 C 92 % 1006,7 hPa 0,0 l/m 2,3 km/h (1 Bft) O-NO 76 0 min 0 W/m -0,1 C 1,1 C 4,8 km/h (1 Bft)
29.03.2018 23:15 1,0 C 93 % 1006,7 hPa 0,0 l/m 2,7 km/h (1 Bft) O-NO 76 0 min 0 W/m -0,0 C 1,0 C 6,4 km/h (2 Bft)
29.03.2018 23:18 1,0 C 93 % 1006,8 hPa 0,0 l/m 4,2 km/h (1 Bft) O-NO 74 0 min 0 W/m -0,0 C 1,0 C 8,0 km/h (2 Bft)
29.03.2018 23:21 0,9 C 93 % 1006,8 hPa 0,0 l/m 3,6 km/h (1 Bft) O-NO 73 0 min 0 W/m -0,1 C 0,9 C 9,7 km/h (2 Bft)
29.03.2018 23:24 0,9 C 93 % 1006,8 hPa 0,0 l/m 2,4 km/h (1 Bft) O-NO 73 0 min 0 W/m -0,1 C 0,9 C 6,4 km/h (2 Bft)
29.03.2018 23:27 0,9 C 93 % 1006,8 hPa 0,0 l/m 1,4 km/h (1 Bft) O-NO 73 0 min 0 W/m -0,1 C 0,9 C 3,2 km/h (1 Bft)
29.03.2018 23:30 0,9 C 93 % 1006,8 hPa 0,0 l/m 2,4 km/h (1 Bft) O-NO 73 0 min 0 W/m -0,1 C 0,9 C 4,8 km/h (1 Bft)
29.03.2018 23:33 0,8 C 93 % 1006,8 hPa 0,0 l/m 3,7 km/h (1 Bft) O-NO 71 0 min 0 W/m -0,2 C 0,8 C 6,4 km/h (2 Bft)
29.03.2018 23:36 0,8 C 93 % 1006,7 hPa 0,0 l/m 3,7 km/h (1 Bft) O-NO 61 0 min 0 W/m -0,2 C 0,8 C 8,0 km/h (2 Bft)
29.03.2018 23:39 0,8 C 93 % 1006,7 hPa 0,0 l/m 3,8 km/h (1 Bft) O-NO 59 0 min 0 W/m -0,2 C 0,8 C 6,4 km/h (2 Bft)
29.03.2018 23:42 0,8 C 93 % 1006,8 hPa 0,0 l/m 3,5 km/h (1 Bft) O-NO 59 0 min 0 W/m -0,2 C 0,8 C 6,4 km/h (2 Bft)
29.03.2018 23:45 0,7 C 93 % 1006,8 hPa 0,0 l/m 2,7 km/h (1 Bft) O-NO 59 0 min 0 W/m -0,3 C 0,7 C 4,8 km/h (1 Bft)
29.03.2018 23:48 0,7 C 93 % 1006,8 hPa 0,0 l/m 3,7 km/h (1 Bft) O-NO 59 0 min 0 W/m -0,3 C 0,7 C 8,0 km/h (2 Bft)
29.03.2018 23:51 0,7 C 93 % 1006,9 hPa 0,0 l/m 2,3 km/h (1 Bft) O-NO 59 0 min 0 W/m -0,3 C 0,7 C 6,4 km/h (2 Bft)
29.03.2018 23:54 0,7 C 93 % 1006,9 hPa 0,0 l/m 1,1 km/h (1 Bft) O-NO 60 0 min 0 W/m -0,3 C 0,7 C 4,8 km/h (1 Bft)
29.03.2018 23:57 0,7 C 93 % 1006,9 hPa 0,0 l/m 2,2 km/h (1 Bft) O-NO 60 0 min 0 W/m -0,3 C 0,7 C 6,4 km/h (2 Bft)
_ Min-Zeit 01:27 17:57 00:03 - 02:03 - - - - 23:45 01:27 02:03
Minimum _ 0,7 C 85 % 995,9 hPa - 0,0 km/h (0 Bft) - - - - -0,3 C 0,7 C 0,0 km/h (0 Bft)
_ Max-Zeit 17:36 06:33 23:51 00:30 16:12 - - 13:00 14:36 14:45 17:27 00:27
Maximum _ 4,7 C 97 % 1006,9 hPa 0,2 l/m 7,9 km/h
NW (2 Bft)
- - 3 min 457 W/m 3,3 C 4,5 C 17,7 km/h
NO (3 Bft)
Durchschnitt _ 2,2 C 94 % 1001,3 hPa #9,6 l/m 3,0 km/h (1 Bft) N-NW - #1:21 h 158 W/m 1,3 C 2,2 C 6,4 km/h (2 Bft)
2018 Cux-Wetter.de -Die Nutzung der Wetterdaten nur mit ausdrcklicher Genehmigung